Observation data for New Home on 04/22/2019      Previous  Date  Next       Current Mesonet Observations  Soil Data  Daily Summary Page  Observations in Plain Language
KNH1 220500Z 20012KT 19/02 A2992 RMK A01 T01880024  RH  034%=      5-min Rain = 0
KNH1 220501Z 20011KT 19/03 A2992 RMK A01 T01880025  RH  034%=      5-min Rain = 0
KNH1 220502Z 20012KT 19/03 A2992 RMK A01 T01880027  RH  034%=      5-min Rain = 0
KNH1 220503Z 20012KT 19/03 A2992 RMK A01 T01870029  RH  035%=      5-min Rain = 0
KNH1 220504Z 20012KT 19/03 A2992 RMK A01 T01870032  RH  036%=      5-min Rain = 0
KNH1 220505Z 20014KT 19/04 A2992 RMK A01 T01870037  RH  037%=      5-min Rain = 0
KNH1 220506Z 20013KT 19/04 A2992 RMK A01 T01880041  RH  038%=      5-min Rain = 0
KNH1 220507Z 20012KT 19/04 A2992 RMK A01 T01890042  RH  038%=      5-min Rain = 0
KNH1 220508Z 20013KT 19/04 A2992 RMK A01 T01900043  RH  038%=      5-min Rain = 0
KNH1 220509Z 20013KT 19/04 A2992 RMK A01 T01910044  RH  038%=      5-min Rain = 0
KNH1 220510Z 20012KT 19/04 A2992 RMK A01 T01910044  RH  038%=      5-min Rain = 0
KNH1 220511Z 20012KT 19/05 A2992 RMK A01 T01900045  RH  038%=      5-min Rain = 0
KNH1 220512Z 20011KT 19/05 A2992 RMK A01 T01900046  RH  039%=      5-min Rain = 0
KNH1 220513Z 20012KT 19/05 A2992 RMK A01 T01890047  RH  039%=      5-min Rain = 0
KNH1 220514Z 20012KT 19/05 A2992 RMK A01 T01880049  RH  040%=      5-min Rain = 0
KNH1 220515Z 20012KT 19/05 A2992 RMK A01 T01880050  RH  040%=      5-min Rain = 0
KNH1 220516Z 20012KT 19/05 A2992 RMK A01 T01880051  RH  040%=      5-min Rain = 0
KNH1 220517Z 20012KT 19/05 A2992 RMK A01 T01880051  RH  040%=      5-min Rain = 0
KNH1 220518Z 20011KT 19/05 A2992 RMK A01 T01880052  RH  041%=      5-min Rain = 0
KNH1 220519Z 20011KT 19/05 A2992 RMK A01 T01880052  RH  041%=      5-min Rain = 0
KNH1 220520Z 20012KT 19/05 A2992 RMK A01 T01880053  RH  041%=      5-min Rain = 0
KNH1 220521Z 20011KT 19/05 A2992 RMK A01 T01870052  RH  041%=      5-min Rain = 0
KNH1 220522Z 20012KT 19/05 A2992 RMK A01 T01870053  RH  041%=      5-min Rain = 0
KNH1 220523Z 20012KT 19/05 A2992 RMK A01 T01860053  RH  042%=      5-min Rain = 0
KNH1 220524Z 20011KT 19/05 A2992 RMK A01 T01850053  RH  042%=      5-min Rain = 0
KNH1 220525Z 20012KT 19/05 A2992 RMK A01 T01850053  RH  042%=      5-min Rain = 0
KNH1 220526Z 20012KT 18/05 A2992 RMK A01 T01830053  RH  042%=      5-min Rain = 0
KNH1 220527Z 20011KT 18/05 A2992 RMK A01 T01830054  RH  043%=      5-min Rain = 0
KNH1 220528Z 20011KT 18/06 A2992 RMK A01 T01820055  RH  043%=      5-min Rain = 0
KNH1 220529Z 20011KT 18/06 A2992 RMK A01 T01820056  RH  044%=      5-min Rain = 0
KNH1 220530Z 20011KT 18/06 A2992 RMK A01 T01820057  RH  044%=      5-min Rain = 0
KNH1 220531Z 20011KT 18/06 A2992 RMK A01 T01810058  RH  044%=      5-min Rain = 0
KNH1 220532Z 20011KT 18/06 A2992 RMK A01 T01810059  RH  045%=      5-min Rain = 0
KNH1 220533Z 20011KT 18/06 A2992 RMK A01 T01810061  RH  045%=      5-min Rain = 0
KNH1 220534Z 20011KT 18/06 A2992 RMK A01 T01820063  RH  046%=      5-min Rain = 0
KNH1 220535Z 20011KT 18/06 A2992 RMK A01 T01830064  RH  046%=      5-min Rain = 0
KNH1 220536Z 20011KT 18/06 A2992 RMK A01 T01820064  RH  046%=      5-min Rain = 0
KNH1 220537Z 20011KT 18/07 A2992 RMK A01 T01820065  RH  046%=      5-min Rain = 0
KNH1 220538Z 20012KT 18/07 A2992 RMK A01 T01820067  RH  047%=      5-min Rain = 0
KNH1 220539Z 20011KT 18/07 A2992 RMK A01 T01820068  RH  047%=      5-min Rain = 0
KNH1 220540Z 20011KT 18/07 A2992 RMK A01 T01820069  RH  048%=      5-min Rain = 0
KNH1 220541Z 20011KT 18/07 A2992 RMK A01 T01820070  RH  048%=      5-min Rain = 0
KNH1 220542Z 20012KT 18/07 A2992 RMK A01 T01820071  RH  048%=      5-min Rain = 0
KNH1 220543Z 20011KT 18/07 A2992 RMK A01 T01820072  RH  048%=      5-min Rain = 0
KNH1 220544Z 20011KT 18/07 A2993 RMK A01 T01830073  RH  049%=      5-min Rain = 0
KNH1 220545Z 20012KT 18/07 A2993 RMK A01 T01820074  RH  049%=      5-min Rain = 0
KNH1 220546Z 20011KT 18/08 A2993 RMK A01 T01820075  RH  050%=      5-min Rain = 0
KNH1 220547Z 19011KT 18/08 A2993 RMK A01 T01830076  RH  050%=      5-min Rain = 0
KNH1 220548Z 19011KT 18/08 A2993 RMK A01 T01830076  RH  050%=      5-min Rain = 0
KNH1 220549Z 19012KT 18/08 A2993 RMK A01 T01830077  RH  050%=      5-min Rain = 0
KNH1 220550Z 20011KT 18/08 A2993 RMK A01 T01830078  RH  050%=      5-min Rain = 0
KNH1 220551Z 19011KT 18/08 A2993 RMK A01 T01830078  RH  050%=      5-min Rain = 0
KNH1 220552Z 19011KT 18/08 A2993 RMK A01 T01830079  RH  051%=      5-min Rain = 0
KNH1 220553Z 19011KT 18/08 A2993 RMK A01 T01830079  RH  051%=      5-min Rain = 0
KNH1 220554Z 20011KT 18/08 A2993 RMK A01 T01830079  RH  051%=      5-min Rain = 0
KNH1 220555Z 19011KT 18/08 A2993 RMK A01 T01820080  RH  051%=      5-min Rain = 0
KNH1 220556Z 19011KT 18/08 A2993 RMK A01 T01820081  RH  052%=      5-min Rain = 0
KNH1 220557Z 19011KT 18/08 A2993 RMK A01 T01820081  RH  052%=      5-min Rain = 0
KNH1 220558Z 20010KT 18/08 A2993 RMK A01 T01810081  RH  052%=      5-min Rain = 0
KNH1 220559Z 20011KT 18/08 A2993 RMK A01 T01810082  RH  052%=      5-min Rain = 0
KNH1 220600Z 19011KT 18/08 A2993 RMK A01 T01810082  RH  052%=      5-min Rain = 0
KNH1 220601Z 19011KT 18/08 A2993 RMK A01 T01810082  RH  052%=      5-min Rain = 0
KNH1 220602Z 20010KT 18/08 A2993 RMK A01 T01800082  RH  053%=      5-min Rain = 0
KNH1 220603Z 20010KT 18/08 A2993 RMK A01 T01800083  RH  053%=      5-min Rain = 0
KNH1 220604Z 20009KT 18/08 A2993 RMK A01 T01800084  RH  053%=      5-min Rain = 0
KNH1 220605Z 20008KT 18/08 A2993 RMK A01 T01800084  RH  053%=      5-min Rain = 0
KNH1 220606Z 20009KT 18/08 A2993 RMK A01 T01790083  RH  053%=      5-min Rain = 0
KNH1 220607Z 20008KT 18/08 A2993 RMK A01 T01790083  RH  054%=      5-min Rain = 0
KNH1 220608Z 20009KT 18/08 A2993 RMK A01 T01780083  RH  054%=      5-min Rain = 0
KNH1 220609Z 20009KT 18/08 A2993 RMK A01 T01770084  RH  054%=      5-min Rain = 0
KNH1 220610Z 20009KT 18/08 A2993 RMK A01 T01770084  RH  054%=      5-min Rain = 0
KNH1 220611Z 20009KT 18/08 A2993 RMK A01 T01760084  RH  055%=      5-min Rain = 0
KNH1 220612Z 20010KT 18/09 A2993 RMK A01 T01760085  RH  055%=      5-min Rain = 0
KNH1 220613Z 20009KT 18/09 A2993 RMK A01 T01760085  RH  055%=      5-min Rain = 0
KNH1 220614Z 20009KT 18/09 A2993 RMK A01 T01760085  RH  055%=      5-min Rain = 0
KNH1 220615Z 20010KT 18/09 A2993 RMK A01 T01750085  RH  055%=      5-min Rain = 0
KNH1 220616Z 20010KT 18/09 A2993 RMK A01 T01750086  RH  056%=      5-min Rain = 0
KNH1 220617Z 20010KT 17/09 A2993 RMK A01 T01740087  RH  056%=      5-min Rain = 0
KNH1 220618Z 20010KT 17/09 A2993 RMK A01 T01740088  RH  057%=      5-min Rain = 0
KNH1 220619Z 20010KT 18/09 A2993 RMK A01 T01750088  RH  057%=      5-min Rain = 0
KNH1 220620Z 20010KT 18/09 A2993 RMK A01 T01750089  RH  057%=      5-min Rain = 0
KNH1 220621Z 20009KT 18/09 A2993 RMK A01 T01750089  RH  057%=      5-min Rain = 0
KNH1 220622Z 20010KT 18/09 A2993 RMK A01 T01750090  RH  057%=      5-min Rain = 0
KNH1 220623Z 20010KT 17/09 A2993 RMK A01 T01740091  RH  058%=      5-min Rain = 0
KNH1 220624Z 20010KT 17/09 A2993 RMK A01 T01740092  RH  058%=      5-min Rain = 0
KNH1 220625Z 20010KT 18/09 A2993 RMK A01 T01750093  RH  059%=      5-min Rain = 0
KNH1 220626Z 20009KT 18/10 A2993 RMK A01 T01750095  RH  059%=      5-min Rain = 0
KNH1 220627Z 20010KT 18/10 A2993 RMK A01 T01750095  RH  059%=      5-min Rain = 0
KNH1 220628Z 20009KT 18/10 A2993 RMK A01 T01750096  RH  059%=      5-min Rain = 0
KNH1 220629Z 20010KT 18/10 A2993 RMK A01 T01750096  RH  060%=      5-min Rain = 0
KNH1 220630Z 20010KT 18/10 A2992 RMK A01 T01750097  RH  060%=      5-min Rain = 0
KNH1 220631Z 20011KT 18/10 A2993 RMK A01 T01760098  RH  060%=      5-min Rain = 0
KNH1 220632Z 20010KT 18/10 A2992 RMK A01 T01760099  RH  060%=      5-min Rain = 0
KNH1 220633Z 20010KT 18/10 A2993 RMK A01 T01760098  RH  060%=      5-min Rain = 0
KNH1 220634Z 20010KT 18/10 A2993 RMK A01 T01760099  RH  060%=      5-min Rain = 0
KNH1 220635Z 20010KT 18/10 A2993 RMK A01 T01760099  RH  061%=      5-min Rain = 0
KNH1 220636Z 20010KT 18/10 A2993 RMK A01 T01760100  RH  061%=      5-min Rain = 0
KNH1 220637Z 20011KT 18/10 A2993 RMK A01 T01750100  RH  061%=      5-min Rain = 0
KNH1 220638Z 20010KT 18/10 A2993 RMK A01 T01750100  RH  061%=      5-min Rain = 0
KNH1 220639Z 20011KT 18/10 A2992 RMK A01 T01760101  RH  062%=      5-min Rain = 0
KNH1 220640Z 20011KT 18/10 A2992 RMK A01 T01760102  RH  062%=      5-min Rain = 0
KNH1 220641Z 20010KT 18/10 A2992 RMK A01 T01760102  RH  062%=      5-min Rain = 0
KNH1 220642Z 20011KT 18/10 A2992 RMK A01 T01760102  RH  062%=      5-min Rain = 0
KNH1 220643Z 20011KT 18/10 A2992 RMK A01 T01760103  RH  062%=      5-min Rain = 0
KNH1 220644Z 20011KT 18/10 A2992 RMK A01 T01770104  RH  062%=      5-min Rain = 0
KNH1 220645Z 20011KT 18/10 A2992 RMK A01 T01770104  RH  062%=      5-min Rain = 0
KNH1 220646Z 20011KT 18/10 A2992 RMK A01 T01780104  RH  062%=      5-min Rain = 0
KNH1 220647Z 20011KT 18/11 A2992 RMK A01 T01780105  RH  062%=      5-min Rain = 0
KNH1 220648Z 20012KT 18/11 A2992 RMK A01 T01780106  RH  062%=      5-min Rain = 0
KNH1 220649Z 20011KT 18/11 A2992 RMK A01 T01780106  RH  063%=      5-min Rain = 0
KNH1 220650Z 20012KT 18/11 A2992 RMK A01 T01780105  RH  062%=      5-min Rain = 0
KNH1 220651Z 20012KT 18/11 A2992 RMK A01 T01780107  RH  063%=      5-min Rain = 0
KNH1 220652Z 20011KT 18/11 A2992 RMK A01 T01780107  RH  063%=      5-min Rain = 0
KNH1 220653Z 20012KT 18/11 A2993 RMK A01 T01780107  RH  063%=      5-min Rain = 0
KNH1 220654Z 20012KT 18/11 A2993 RMK A01 T01780107  RH  063%=      5-min Rain = 0
KNH1 220655Z 20011KT 18/11 A2993 RMK A01 T01780108  RH  063%=      5-min Rain = 0
KNH1 220656Z 20012KT 18/11 A2993 RMK A01 T01780108  RH  064%=      5-min Rain = 0
KNH1 220657Z 20012KT 18/11 A2993 RMK A01 T01780109  RH  064%=      5-min Rain = 0
KNH1 220658Z 19012KT 18/11 A2992 RMK A01 T01790109  RH  064%=      5-min Rain = 0
KNH1 220659Z 20012KT 18/11 A2992 RMK A01 T01780110  RH  064%=      5-min Rain = 0
KNH1 220700Z 20012KT 18/11 A2992 RMK A01 T01790110  RH  064%=      5-min Rain = 0
KNH1 220701Z 19012KT 18/11 A2992 RMK A01 T01780110  RH  064%=      5-min Rain = 0
KNH1 220702Z 19012KT 18/11 A2992 RMK A01 T01780110  RH  065%=      5-min Rain = 0
KNH1 220703Z 19012KT 18/11 A2992 RMK A01 T01780111  RH  064%=      5-min Rain = 0
KNH1 220704Z 20012KT 18/11 A2992 RMK A01 T01780110  RH  064%=      5-min Rain = 0
KNH1 220705Z 19012KT 18/11 A2992 RMK A01 T01780111  RH  065%=      5-min Rain = 0
KNH1 220706Z 19012KT 18/11 A2993 RMK A01 T01780112  RH  065%=      5-min Rain = 0
KNH1 220707Z 19012KT 18/11 A2993 RMK A01 T01780111  RH  065%=      5-min Rain = 0
KNH1 220708Z 20012KT 18/11 A2993 RMK A01 T01770112  RH  066%=      5-min Rain = 0
KNH1 220709Z 20011KT 18/11 A2993 RMK A01 T01780112  RH  066%=      5-min Rain = 0
KNH1 220710Z 20011KT 18/11 A2992 RMK A01 T01780112  RH  066%=      5-min Rain = 0
KNH1 220711Z 19011KT 18/11 A2992 RMK A01 T01780113  RH  066%=      5-min Rain = 0
KNH1 220712Z 20012KT 18/11 A2992 RMK A01 T01780113  RH  066%=      5-min Rain = 0
KNH1 220713Z 20011KT 18/11 A2992 RMK A01 T01770113  RH  066%=      5-min Rain = 0
KNH1 220714Z 20012KT 18/11 A2992 RMK A01 T01770114  RH  066%=      5-min Rain = 0
KNH1 220715Z 20011KT 18/11 A2992 RMK A01 T01770114  RH  066%=      5-min Rain = 0
KNH1 220716Z 20011KT 18/11 A2992 RMK A01 T01770114  RH  066%=      5-min Rain = 0
KNH1 220717Z 20012KT 18/12 A2992 RMK A01 T01770115  RH  067%=      5-min Rain = 0
KNH1 220718Z 20012KT 18/12 A2992 RMK A01 T01770115  RH  067%=      5-min Rain = 0
KNH1 220719Z 21011KT 18/12 A2992 RMK A01 T01770116  RH  067%=      5-min Rain = 0
KNH1 220720Z 21011KT 18/12 A2992 RMK A01 T01780116  RH  067%=      5-min Rain = 0
KNH1 220721Z 21011KT 18/12 A2992 RMK A01 T01780116  RH  067%=      5-min Rain = 0
KNH1 220722Z 21011KT 18/12 A2992 RMK A01 T01780116  RH  067%=      5-min Rain = 0
KNH1 220723Z 20012KT 18/12 A2992 RMK A01 T01770116  RH  067%=      5-min Rain = 0
KNH1 220724Z 20012KT 18/12 A2992 RMK A01 T01770116  RH  068%=      5-min Rain = 0
KNH1 220725Z 20012KT 18/12 A2992 RMK A01 T01760117  RH  068%=      5-min Rain = 0
KNH1 220726Z 20013KT 18/12 A2992 RMK A01 T01760117  RH  068%=      5-min Rain = 0
KNH1 220727Z 20012KT 18/12 A2992 RMK A01 T01760118  RH  068%=      5-min Rain = 0
KNH1 220728Z 20014KT 18/12 A2992 RMK A01 T01760118  RH  069%=      5-min Rain = 0
KNH1 220729Z 20013KT 18/12 A2992 RMK A01 T01770119  RH  069%=      5-min Rain = 0
KNH1 220730Z 20013KT 18/12 A2992 RMK A01 T01780119  RH  069%=      5-min Rain = 0
KNH1 220731Z 20013KT 18/12 A2992 RMK A01 T01780120  RH  069%=      5-min Rain = 0
KNH1 220732Z 20013KT 18/12 A2992 RMK A01 T01780120  RH  069%=      5-min Rain = 0
KNH1 220733Z 20012KT 18/12 A2992 RMK A01 T01780121  RH  069%=      5-min Rain = 0
KNH1 220734Z 20013KT 18/12 A2992 RMK A01 T01780121  RH  069%=      5-min Rain = 0
KNH1 220735Z 20012KT 18/12 A2992 RMK A01 T01780121  RH  069%=      5-min Rain = 0
KNH1 220736Z 20013KT 18/12 A2992 RMK A01 T01790122  RH  069%=      5-min Rain = 0
KNH1 220737Z 20013KT 18/12 A2992 RMK A01 T01790122  RH  069%=      5-min Rain = 0
KNH1 220738Z 21012KT 18/12 A2992 RMK A01 T01790123  RH  069%=      5-min Rain = 0
KNH1 220739Z 20012KT 18/12 A2992 RMK A01 T01790123  RH  069%=      5-min Rain = 0
KNH1 220740Z 20012KT 18/12 A2992 RMK A01 T01790122  RH  069%=      5-min Rain = 0
KNH1 220741Z 20011KT 18/12 A2992 RMK A01 T01780123  RH  070%=      5-min Rain = 0
KNH1 220742Z 20013KT 18/12 A2992 RMK A01 T01780123  RH  070%=      5-min Rain = 0
KNH1 220743Z 20012KT 18/12 A2992 RMK A01 T01780124  RH  070%=      5-min Rain = 0
KNH1 220744Z 20012KT 18/12 A2992 RMK A01 T01790124  RH  070%=      5-min Rain = 0
KNH1 220745Z 20012KT 18/12 A2992 RMK A01 T01780123  RH  070%=      5-min Rain = 0
KNH1 220746Z 20012KT 18/12 A2992 RMK A01 T01780124  RH  071%=      5-min Rain = 0
KNH1 220747Z 20011KT 18/13 A2992 RMK A01 T01780125  RH  071%=      5-min Rain = 0
KNH1 220748Z 20012KT 18/13 A2992 RMK A01 T01770125  RH  071%=      5-min Rain = 0
KNH1 220749Z 20011KT 18/13 A2992 RMK A01 T01770125  RH  071%=      5-min Rain = 0
KNH1 220750Z 20011KT 18/12 A2992 RMK A01 T01770124  RH  071%=      5-min Rain = 0
KNH1 220751Z 20012KT 18/13 A2992 RMK A01 T01770125  RH  071%=      5-min Rain = 0
KNH1 220752Z 20011KT 18/13 A2992 RMK A01 T01770125  RH  072%=      5-min Rain = 0
KNH1 220753Z 21011KT 18/13 A2992 RMK A01 T01770125  RH  072%=      5-min Rain = 0
KNH1 220754Z 21011KT 18/13 A2992 RMK A01 T01770126  RH  072%=      5-min Rain = 0
KNH1 220755Z 21011KT 18/13 A2992 RMK A01 T01770126  RH  072%=      5-min Rain = 0
KNH1 220756Z 20010KT 18/13 A2992 RMK A01 T01770126  RH  072%=      5-min Rain = 0
KNH1 220757Z 20010KT 18/13 A2992 RMK A01 T01760125  RH  072%=      5-min Rain = 0
KNH1 220758Z 20010KT 18/13 A2992 RMK A01 T01750125  RH  072%=      5-min Rain = 0
KNH1 220759Z 20011KT 18/13 A2992 RMK A01 T01750126  RH  073%=      5-min Rain = 0
KNH1 220800Z 20011KT 18/13 A2992 RMK A01 T01750126  RH  073%=      5-min Rain = 0
KNH1 220801Z 20011KT 18/13 A2992 RMK A01 T01750126  RH  073%=      5-min Rain = 0
KNH1 220802Z 20010KT 17/13 A2992 RMK A01 T01740125  RH  073%=      5-min Rain = 0
KNH1 220803Z 20010KT 17/13 A2992 RMK A01 T01740125  RH  073%=      5-min Rain = 0
KNH1 220804Z 20009KT 17/13 A2992 RMK A01 T01730125  RH  073%=      5-min Rain = 0
KNH1 220805Z 20009KT 17/13 A2992 RMK A01 T01720125  RH  074%=      5-min Rain = 0
KNH1 220806Z 21009KT 17/13 A2992 RMK A01 T01720125  RH  074%=      5-min Rain = 0
KNH1 220807Z 21009KT 17/13 A2992 RMK A01 T01720125  RH  074%=      5-min Rain = 0
KNH1 220808Z 21009KT 17/13 A2992 RMK A01 T01720125  RH  074%=      5-min Rain = 0
KNH1 220809Z 21009KT 17/13 A2992 RMK A01 T01720125  RH  074%=      5-min Rain = 0
KNH1 220810Z 21009KT 17/13 A2992 RMK A01 T01720126  RH  074%=      5-min Rain = 0
KNH1 220811Z 21009KT 17/13 A2992 RMK A01 T01720125  RH  074%=      5-min Rain = 0
KNH1 220812Z 21008KT 17/13 A2992 RMK A01 T01710125  RH  074%=      5-min Rain = 0
KNH1 220813Z 21009KT 17/13 A2992 RMK A01 T01710125  RH  075%=      5-min Rain = 0
KNH1 220814Z 21010KT 17/13 A2993 RMK A01 T01710126  RH  075%=      5-min Rain = 0
KNH1 220815Z 21010KT 17/13 A2993 RMK A01 T01710126  RH  075%=      5-min Rain = 0
KNH1 220816Z 21011KT 17/13 A2993 RMK A01 T01710126  RH  075%=      5-min Rain = 0
KNH1 220817Z 21011KT 17/13 A2993 RMK A01 T01720127  RH  075%=      5-min Rain = 0
KNH1 220818Z 21010KT 17/13 A2993 RMK A01 T01720126  RH  074%=      5-min Rain = 0
KNH1 220819Z 21011KT 17/13 A2993 RMK A01 T01720127  RH  075%=      5-min Rain = 0
KNH1 220820Z 21010KT 17/13 A2993 RMK A01 T01720127  RH  075%=      5-min Rain = 0
KNH1 220821Z 21010KT 17/13 A2993 RMK A01 T01720127  RH  075%=      5-min Rain = 0
KNH1 220822Z 21010KT 17/13 A2993 RMK A01 T01720127  RH  075%=      5-min Rain = 0
KNH1 220823Z 21010KT 17/13 A2993 RMK A01 T01720127  RH  075%=      5-min Rain = 0
KNH1 220824Z 21011KT 17/13 A2993 RMK A01 T01720127  RH  075%=      5-min Rain = 0
KNH1 220825Z 21011KT 17/13 A2993 RMK A01 T01720128  RH  075%=      5-min Rain = 0
KNH1 220826Z 20011KT 17/13 A2993 RMK A01 T01720128  RH  075%=      5-min Rain = 0
KNH1 220827Z 20012KT 17/13 A2993 RMK A01 T01720128  RH  075%=      5-min Rain = 0
KNH1 220828Z 21011KT 17/13 A2993 RMK A01 T01720128  RH  075%=      5-min Rain = 0
KNH1 220829Z 21010KT 17/13 A2993 RMK A01 T01720128  RH  075%=      5-min Rain = 0
KNH1 220830Z 21011KT 17/13 A2993 RMK A01 T01720128  RH  075%=      5-min Rain = 0
KNH1 220831Z 21010KT 17/13 A2993 RMK A01 T01720129  RH  076%=      5-min Rain = 0
KNH1 220832Z 20009KT 17/13 A2993 RMK A01 T01720128  RH  076%=      5-min Rain = 0
KNH1 220833Z 21010KT 17/13 A2993 RMK A01 T01710129  RH  076%=      5-min Rain = 0
KNH1 220834Z 20009KT 17/13 A2993 RMK A01 T01720128  RH  076%=      5-min Rain = 0
KNH1 220835Z 20009KT 17/13 A2993 RMK A01 T01710128  RH  076%=      5-min Rain = 0
KNH1 220836Z 20009KT 17/13 A2993 RMK A01 T01710128  RH  076%=      5-min Rain = 0
KNH1 220837Z 20009KT 17/13 A2993 RMK A01 T01700128  RH  076%=      5-min Rain = 0
KNH1 220838Z 21010KT 17/13 A2993 RMK A01 T01700128  RH  076%=      5-min Rain = 0
KNH1 220839Z 20009KT 17/13 A2993 RMK A01 T01700129  RH  076%=      5-min Rain = 0
KNH1 220840Z 21009KT 17/13 A2993 RMK A01 T01700128  RH  076%=      5-min Rain = 0
KNH1 220841Z 20008KT 17/13 A2993 RMK A01 T01700128  RH  076%=      5-min Rain = 0
KNH1 220842Z 20008KT 17/13 A2993 RMK A01 T01700128  RH  076%=      5-min Rain = 0
KNH1 220843Z 20008KT 17/13 A2993 RMK A01 T01690128  RH  077%=      5-min Rain = 0
KNH1 220844Z 20008KT 17/13 A2993 RMK A01 T01690128  RH  077%=      5-min Rain = 0
KNH1 220845Z 20008KT 17/13 A2993 RMK A01 T01680128  RH  077%=      5-min Rain = 0
KNH1 220846Z 20009KT 17/13 A2993 RMK A01 T01680128  RH  077%=      5-min Rain = 0
KNH1 220847Z 20010KT 17/13 A2993 RMK A01 T01680128  RH  077%=      5-min Rain = 0
KNH1 220848Z 20008KT 17/13 A2993 RMK A01 T01680129  RH  078%=      5-min Rain = 0
KNH1 220849Z 20008KT 17/13 A2993 RMK A01 T01680128  RH  077%=      5-min Rain = 0
KNH1 220850Z 20008KT 17/13 A2993 RMK A01 T01670128  RH  077%=      5-min Rain = 0
KNH1 220851Z 20008KT 17/13 A2993 RMK A01 T01670128  RH  078%=      5-min Rain = 0
KNH1 220852Z 20007KT 17/13 A2993 RMK A01 T01670128  RH  078%=      5-min Rain = 0
KNH1 220853Z 21007KT 17/13 A2993 RMK A01 T01660128  RH  078%=      5-min Rain = 0
KNH1 220854Z 20007KT 17/13 A2993 RMK A01 T01660128  RH  078%=      5-min Rain = 0
KNH1 220855Z 20007KT 17/13 A2993 RMK A01 T01660128  RH  078%=      5-min Rain = 0
KNH1 220856Z 20007KT 17/13 A2993 RMK A01 T01650127  RH  078%=      5-min Rain = 0
KNH1 220857Z 20007KT 17/13 A2993 RMK A01 T01650127  RH  078%=      5-min Rain = 0
KNH1 220858Z 20007KT 17/13 A2993 RMK A01 T01650127  RH  078%=      5-min Rain = 0
KNH1 220859Z 20007KT 16/13 A2993 RMK A01 T01640127  RH  079%=      5-min Rain = 0
KNH1 220900Z 20008KT 16/13 A2993 RMK A01 T01640127  RH  079%=      5-min Rain = 0
KNH1 220901Z 21007KT 16/13 A2993 RMK A01 T01640128  RH  079%=      5-min Rain = 0
KNH1 220902Z 21007KT 16/13 A2993 RMK A01 T01640128  RH  079%=      5-min Rain = 0
KNH1 220903Z 21007KT 16/13 A2993 RMK A01 T01640127  RH  079%=      5-min Rain = 0
KNH1 220904Z 21007KT 16/13 A2993 RMK A01 T01640128  RH  079%=      5-min Rain = 0
KNH1 220905Z 21008KT 16/13 A2993 RMK A01 T01640128  RH  079%=      5-min Rain = 0
KNH1 220906Z 21008KT 16/13 A2993 RMK A01 T01640128  RH  079%=      5-min Rain = 0
KNH1 220907Z 21008KT 16/13 A2993 RMK A01 T01640128  RH  080%=      5-min Rain = 0
KNH1 220908Z 21008KT 16/13 A2993 RMK A01 T01640128  RH  079%=      5-min Rain = 0
KNH1 220909Z 21008KT 16/13 A2993 RMK A01 T01640128  RH  079%=      5-min Rain = 0
KNH1 220910Z 21008KT 16/13 A2993 RMK A01 T01640128  RH  079%=      5-min Rain = 0
KNH1 220911Z 21008KT 16/13 A2993 RMK A01 T01640129  RH  079%=      5-min Rain = 0
KNH1 220912Z 21007KT 16/13 A2993 RMK A01 T01640129  RH  079%=      5-min Rain = 0
KNH1 220913Z 21007KT 16/13 A2993 RMK A01 T01640128  RH  079%=      5-min Rain = 0
KNH1 220914Z 22007KT 16/13 A2993 RMK A01 T01640128  RH  079%=      5-min Rain = 0
KNH1 220915Z 22007KT 16/13 A2993 RMK A01 T01630127  RH  079%=      5-min Rain = 0
KNH1 220916Z 21007KT 16/13 A2993 RMK A01 T01630127  RH  080%=      5-min Rain = 0
KNH1 220917Z 21007KT 16/13 A2993 RMK A01 T01620127  RH  080%=      5-min Rain = 0
KNH1 220918Z 21007KT 16/13 A2993 RMK A01 T01610127  RH  080%=      5-min Rain = 0
KNH1 220919Z 21007KT 16/13 A2993 RMK A01 T01610127  RH  080%=      5-min Rain = 0
KNH1 220920Z 21007KT 16/13 A2993 RMK A01 T01600127  RH  080%=      5-min Rain = 0
KNH1 220921Z 21007KT 16/13 A2993 RMK A01 T01600127  RH  081%=      5-min Rain = 0
KNH1 220922Z 21007KT 16/13 A2993 RMK A01 T01590127  RH  081%=      5-min Rain = 0
KNH1 220923Z 21006KT 16/13 A2993 RMK A01 T01600127  RH  081%=      5-min Rain = 0
KNH1 220924Z 21007KT 16/13 A2993 RMK A01 T01590126  RH  081%=      5-min Rain = 0
KNH1 220925Z 21006KT 16/13 A2993 RMK A01 T01580126  RH  081%=      5-min Rain = 0
KNH1 220926Z 21006KT 16/13 A2993 RMK A01 T01580126  RH  081%=      5-min Rain = 0
KNH1 220927Z 21007KT 16/13 A2993 RMK A01 T01580126  RH  081%=      5-min Rain = 0
KNH1 220928Z 21007KT 16/13 A2993 RMK A01 T01580126  RH  081%=      5-min Rain = 0
KNH1 220929Z 21006KT 16/13 A2993 RMK A01 T01580126  RH  081%=      5-min Rain = 0
KNH1 220930Z 20007KT 16/13 A2993 RMK A01 T01570126  RH  082%=      5-min Rain = 0
KNH1 220931Z 21006KT 16/13 A2993 RMK A01 T01570126  RH  082%=      5-min Rain = 0
KNH1 220932Z 21006KT 16/13 A2993 RMK A01 T01570126  RH  082%=      5-min Rain = 0
KNH1 220933Z 21006KT 16/13 A2993 RMK A01 T01570126  RH  082%=      5-min Rain = 0
KNH1 220934Z 21007KT 16/13 A2993 RMK A01 T01560125  RH  082%=      5-min Rain = 0
KNH1 220935Z 20007KT 16/13 A2993 RMK A01 T01560125  RH  082%=      5-min Rain = 0
KNH1 220936Z 20007KT 16/13 A2993 RMK A01 T01550125  RH  082%=      5-min Rain = 0
KNH1 220937Z 21007KT 16/13 A2993 RMK A01 T01550125  RH  082%=      5-min Rain = 0
KNH1 220938Z 21007KT 16/13 A2993 RMK A01 T01550126  RH  083%=      5-min Rain = 0
KNH1 220939Z 21007KT 16/13 A2993 RMK A01 T01550126  RH  083%=      5-min Rain = 0
KNH1 220940Z 21007KT 16/13 A2993 RMK A01 T01550125  RH  083%=      5-min Rain = 0
KNH1 220941Z 21007KT 16/13 A2993 RMK A01 T01550125  RH  083%=      5-min Rain = 0
KNH1 220942Z 21008KT 16/13 A2993 RMK A01 T01550125  RH  083%=      5-min Rain = 0
KNH1 220943Z 21008KT 16/13 A2993 RMK A01 T01550126  RH  083%=      5-min Rain = 0
KNH1 220944Z 21008KT 15/13 A2993 RMK A01 T01540125  RH  083%=      5-min Rain = 0
KNH1 220945Z 21008KT 15/13 A2992 RMK A01 T01540126  RH  083%=      5-min Rain = 0
KNH1 220946Z 21008KT 15/13 A2992 RMK A01 T01540125  RH  083%=      5-min Rain = 0
KNH1 220947Z 21008KT 15/13 A2992 RMK A01 T01530125  RH  083%=      5-min Rain = 0
KNH1 220948Z 22009KT 15/13 A2992 RMK A01 T01530125  RH  083%=      5-min Rain = 0
KNH1 220949Z 21008KT 15/13 A2992 RMK A01 T01530125  RH  084%=      5-min Rain = 0
KNH1 220950Z 21008KT 15/13 A2992 RMK A01 T01530125  RH  084%=      5-min Rain = 0
KNH1 220951Z 21008KT 15/13 A2992 RMK A01 T01520125  RH  084%=      5-min Rain = 0
KNH1 220952Z 21009KT 15/13 A2992 RMK A01 T01520125  RH  084%=      5-min Rain = 0
KNH1 220953Z 21008KT 15/13 A2992 RMK A01 T01520125  RH  084%=      5-min Rain = 0
KNH1 220954Z 21008KT 15/13 A2992 RMK A01 T01510125  RH  084%=      5-min Rain = 0
KNH1 220955Z 21008KT 15/13 A2992 RMK A01 T01510125  RH  084%=      5-min Rain = 0
KNH1 220956Z 21008KT 15/13 A2992 RMK A01 T01510125  RH  084%=      5-min Rain = 0
KNH1 220957Z 21008KT 15/13 A2992 RMK A01 T01510125  RH  085%=      5-min Rain = 0
KNH1 220958Z 21008KT 15/13 A2992 RMK A01 T01510125  RH  085%=      5-min Rain = 0
KNH1 220959Z 20008KT 15/13 A2993 RMK A01 T01510126  RH  085%=      5-min Rain = 0
KNH1 221000Z 20009KT 15/13 A2993 RMK A01 T01520126  RH  085%=      5-min Rain = 0
KNH1 221001Z 20008KT 15/13 A2993 RMK A01 T01520126  RH  085%=      5-min Rain = 0
KNH1 221002Z 20008KT 15/13 A2993 RMK A01 T01520127  RH  085%=      5-min Rain = 0
KNH1 221003Z 20007KT 15/13 A2993 RMK A01 T01520126  RH  084%=      5-min Rain = 0
KNH1 221004Z 20008KT 15/13 A2993 RMK A01 T01520126  RH  084%=      5-min Rain = 0
KNH1 221005Z 20008KT 15/13 A2993 RMK A01 T01510125  RH  084%=      5-min Rain = 0
KNH1 221006Z 20008KT 15/13 A2993 RMK A01 T01510125  RH  085%=      5-min Rain = 0
KNH1 221007Z 20008KT 15/13 A2993 RMK A01 T01510126  RH  085%=      5-min Rain = 0
KNH1 221008Z 20008KT 15/13 A2993 RMK A01 T01510127  RH  085%=      5-min Rain = 0
KNH1 221009Z 20008KT 15/13 A2993 RMK A01 T01510126  RH  085%=      5-min Rain = 0
KNH1 221010Z 19007KT 15/13 A2993 RMK A01 T01510127  RH  085%=      5-min Rain = 0
KNH1 221011Z 20007KT 15/13 A2993 RMK A01 T01510126  RH  085%=      5-min Rain = 0
KNH1 221012Z 19007KT 15/13 A2993 RMK A01 T01510126  RH  085%=      5-min Rain = 0
KNH1 221013Z 19007KT 15/13 A2993 RMK A01 T01510127  RH  085%=      5-min Rain = 0
KNH1 221014Z 19007KT 15/13 A2993 RMK A01 T01510127  RH  085%=      5-min Rain = 0
KNH1 221015Z 19008KT 15/13 A2993 RMK A01 T01510127  RH  085%=      5-min Rain = 0
KNH1 221016Z 19007KT 15/13 A2993 RMK A01 T01510127  RH  086%=      5-min Rain = 0
KNH1 221017Z 19007KT 15/13 A2993 RMK A01 T01510126  RH  085%=      5-min Rain = 0
KNH1 221018Z 19008KT 15/13 A2993 RMK A01 T01500127  RH  086%=      5-min Rain = 0
KNH1 221019Z 19009KT 15/13 A2993 RMK A01 T01500127  RH  086%=      5-min Rain = 0
KNH1 221020Z 19008KT 15/13 A2993 RMK A01 T01500127  RH  086%=      5-min Rain = 0
KNH1 221021Z 19009KT 15/13 A2993 RMK A01 T01500127  RH  086%=      5-min Rain = 0
KNH1 221022Z 19009KT 15/13 A2993 RMK A01 T01500127  RH  086%=      5-min Rain = 0
KNH1 221023Z 19009KT 15/13 A2993 RMK A01 T01500127  RH  086%=      5-min Rain = 0
KNH1 221024Z 19009KT 15/13 A2993 RMK A01 T01510128  RH  086%=      5-min Rain = 0
KNH1 221025Z 19008KT 15/13 A2993 RMK A01 T01510127  RH  086%=      5-min Rain = 0
KNH1 221026Z 20008KT 15/13 A2993 RMK A01 T01510127  RH  085%=      5-min Rain = 0
KNH1 221027Z 19008KT 15/13 A2993 RMK A01 T01510127  RH  085%=      5-min Rain = 0
KNH1 221028Z 19008KT 15/13 A2993 RMK A01 T01510127  RH  086%=      5-min Rain = 0
KNH1 221029Z 19008KT 15/13 A2993 RMK A01 T01510127  RH  086%=      5-min Rain = 0
KNH1 221030Z 19007KT 15/13 A2993 RMK A01 T01510127  RH  086%=      5-min Rain = 0
KNH1 221031Z 19008KT 15/13 A2993 RMK A01 T01510128  RH  086%=      5-min Rain = 0
KNH1 221032Z 19008KT 15/13 A2993 RMK A01 T01510127  RH  086%=      5-min Rain = 0
KNH1 221033Z 19007KT 15/13 A2993 RMK A01 T01510128  RH  086%=      5-min Rain = 0
KNH1 221034Z 19008KT 15/13 A2993 RMK A01 T01510128  RH  086%=      5-min Rain = 0
KNH1 221035Z 19009KT 15/13 A2993 RMK A01 T01510128  RH  086%=      5-min Rain = 0
KNH1 221036Z 19009KT 15/13 A2993 RMK A01 T01520128  RH  086%=      5-min Rain = 0
KNH1 221037Z 19008KT 15/13 A2993 RMK A01 T01520128  RH  086%=      5-min Rain = 0
KNH1 221038Z 19009KT 15/13 A2993 RMK A01 T01520128  RH  086%=      5-min Rain = 0
KNH1 221039Z 19010KT 15/13 A2993 RMK A01 T01520128  RH  086%=      5-min Rain = 0
KNH1 221040Z 19010KT 15/13 A2993 RMK A01 T01520129  RH  086%=      5-min Rain = 0
KNH1 221041Z 19009KT 15/13 A2993 RMK A01 T01520129  RH  086%=      5-min Rain = 0
KNH1 221042Z 19009KT 15/13 A2993 RMK A01 T01520128  RH  086%=      5-min Rain = 0
KNH1 221043Z 19010KT 15/13 A2993 RMK A01 T01520129  RH  086%=      5-min Rain = 0
KNH1 221044Z 19009KT 15/13 A2993 RMK A01 T01520129  RH  086%=      5-min Rain = 0
KNH1 221045Z 18009KT 15/13 A2993 RMK A01 T01520129  RH  086%=      5-min Rain = 0
KNH1 221046Z 19008KT 15/13 A2993 RMK A01 T01510128  RH  086%=      5-min Rain = 0
KNH1 221047Z 18009KT 15/13 A2993 RMK A01 T01510128  RH  086%=      5-min Rain = 0
KNH1 221048Z 19008KT 15/13 A2993 RMK A01 T01510128  RH  087%=      5-min Rain = 0
KNH1 221049Z 19008KT 15/13 A2993 RMK A01 T01500128  RH  087%=      5-min Rain = 0
KNH1 221050Z 19008KT 15/13 A2993 RMK A01 T01500128  RH  087%=      5-min Rain = 0
KNH1 221051Z 19008KT 15/13 A2993 RMK A01 T01490127  RH  087%=      5-min Rain = 0
KNH1 221052Z 19008KT 15/13 A2993 RMK A01 T01490127  RH  087%=      5-min Rain = 0
KNH1 221053Z 19008KT 15/13 A2993 RMK A01 T01490127  RH  087%=      5-min Rain = 0
KNH1 221054Z 19008KT 15/13 A2993 RMK A01 T01490127  RH  087%=      5-min Rain = 0
KNH1 221055Z 19009KT 15/13 A2993 RMK A01 T01490127  RH  087%=      5-min Rain = 0
KNH1 221056Z 19009KT 15/13 A2993 RMK A01 T01490127  RH  087%=      5-min Rain = 0
KNH1 221057Z 19008KT 15/13 A2993 RMK A01 T01490127  RH  087%=      5-min Rain = 0
KNH1 221058Z 19009KT 15/13 A2993 RMK A01 T01490127  RH  087%=      5-min Rain = 0
KNH1 221059Z 19009KT 15/13 A2993 RMK A01 T01490127  RH  087%=      5-min Rain = 0
KNH1 221100Z 19008KT 15/13 A2993 RMK A01 T01490127  RH  087%=      5-min Rain = 0
KNH1 221101Z 19008KT 15/13 A2993 RMK A01 T01500127  RH  086%=      5-min Rain = 0
KNH1 221102Z 19007KT 15/13 A2993 RMK A01 T01490127  RH  086%=      5-min Rain = 0
KNH1 221103Z 19008KT 15/13 A2993 RMK A01 T01490127  RH  086%=      5-min Rain = 0
KNH1 221104Z 19008KT 15/13 A2993 RMK A01 T01490127  RH  087%=      5-min Rain = 0
KNH1 221105Z 19007KT 15/13 A2993 RMK A01 T01490127  RH  087%=      5-min Rain = 0
KNH1 221106Z 19007KT 15/13 A2993 RMK A01 T01490127  RH  086%=      5-min Rain = 0
KNH1 221107Z 20007KT 15/13 A2993 RMK A01 T01490126  RH  086%=      5-min Rain = 0
KNH1 221108Z 20007KT 15/13 A2993 RMK A01 T01490126  RH  086%=      5-min Rain = 0
KNH1 221109Z 20007KT 15/13 A2993 RMK A01 T01490127  RH  087%=      5-min Rain = 0
KNH1 221110Z 20007KT 15/13 A2993 RMK A01 T01490126  RH  086%=      5-min Rain = 0
KNH1 221111Z 20007KT 15/13 A2993 RMK A01 T01490126  RH  086%=      5-min Rain = 0
KNH1 221112Z 20007KT 15/13 A2993 RMK A01 T01490126  RH  086%=      5-min Rain = 0
KNH1 221113Z 20008KT 15/13 A2993 RMK A01 T01490126  RH  086%=      5-min Rain = 0
KNH1 221114Z 20007KT 15/13 A2993 RMK A01 T01490126  RH  086%=      5-min Rain = 0
KNH1 221115Z 19007KT 15/13 A2993 RMK A01 T01490127  RH  086%=      5-min Rain = 0
KNH1 221116Z 19007KT 15/13 A2993 RMK A01 T01490126  RH  086%=      5-min Rain = 0
KNH1 221117Z 19007KT 15/13 A2993 RMK A01 T01490126  RH  086%=      5-min Rain = 0
KNH1 221118Z 19007KT 15/13 A2993 RMK A01 T01490127  RH  087%=      5-min Rain = 0
KNH1 221119Z 19007KT 15/13 A2993 RMK A01 T01480126  RH  087%=      5-min Rain = 0
KNH1 221120Z 19007KT 15/13 A2993 RMK A01 T01470125  RH  086%=      5-min Rain = 0
KNH1 221121Z 19006KT 15/13 A2993 RMK A01 T01470125  RH  087%=      5-min Rain = 0
KNH1 221122Z 19007KT 15/12 A2993 RMK A01 T01460124  RH  087%=      5-min Rain = 0
KNH1 221123Z 20007KT 15/13 A2993 RMK A01 T01460125  RH  087%=      5-min Rain = 0
KNH1 221124Z 20006KT 15/13 A2993 RMK A01 T01470125  RH  087%=      5-min Rain = 0
KNH1 221125Z 20006KT 15/13 A2993 RMK A01 T01470125  RH  087%=      5-min Rain = 0
KNH1 221126Z 20006KT 15/13 A2993 RMK A01 T01470125  RH  087%=      5-min Rain = 0
KNH1 221127Z 20005KT 15/13 A2994 RMK A01 T01460125  RH  087%=      5-min Rain = 0
KNH1 221128Z 20005KT 15/13 A2994 RMK A01 T01460125  RH  087%=      5-min Rain = 0
KNH1 221129Z 20006KT 15/12 A2994 RMK A01 T01450124  RH  087%=      5-min Rain = 0
KNH1 221130Z 20005KT 15/12 A2994 RMK A01 T01450124  RH  087%=      5-min Rain = 0
KNH1 221131Z 20006KT 15/12 A2994 RMK A01 T01450124  RH  087%=      5-min Rain = 0
KNH1 221132Z 20005KT 15/12 A2994 RMK A01 T01450124  RH  087%=      5-min Rain = 0
KNH1 221133Z 20005KT 15/12 A2994 RMK A01 T01450124  RH  087%=      5-min Rain = 0
KNH1 221134Z 21005KT 14/12 A2994 RMK A01 T01440123  RH  087%=      5-min Rain = 0
KNH1 221135Z 21005KT 15/12 A2994 RMK A01 T01450123  RH  087%=      5-min Rain = 0
KNH1 221136Z 21004KT 14/12 A2994 RMK A01 T01440123  RH  087%=      5-min Rain = 0
KNH1 221137Z 21004KT 14/12 A2994 RMK A01 T01440123  RH  087%=      5-min Rain = 0
KNH1 221138Z 21004KT 15/12 A2994 RMK A01 T01450123  RH  087%=      5-min Rain = 0
KNH1 221139Z 21005KT 15/12 A2994 RMK A01 T01450123  RH  087%=      5-min Rain = 0
KNH1 221140Z 21004KT 15/12 A2994 RMK A01 T01450123  RH  087%=      5-min Rain = 0
KNH1 221141Z 21004KT 14/12 A2994 RMK A01 T01440122  RH  087%=      5-min Rain = 0
KNH1 221142Z 21005KT 15/12 A2995 RMK A01 T01450123  RH  087%=      5-min Rain = 0
KNH1 221143Z 21005KT 15/12 A2995 RMK A01 T01450122  RH  087%=      5-min Rain = 0
KNH1 221144Z 21005KT 14/12 A2995 RMK A01 T01440122  RH  087%=      5-min Rain = 0
KNH1 221145Z 21006KT 15/12 A2995 RMK A01 T01450123  RH  087%=      5-min Rain = 0
KNH1 221146Z 21005KT 15/12 A2995 RMK A01 T01450122  RH  086%=      5-min Rain = 0
KNH1 221147Z 20006KT 15/12 A2995 RMK A01 T01450122  RH  087%=      5-min Rain = 0
KNH1 221148Z 21006KT 15/12 A2995 RMK A01 T01450122  RH  086%=      5-min Rain = 0
KNH1 221149Z 21006KT 15/12 A2995 RMK A01 T01450122  RH  086%=      5-min Rain = 0
KNH1 221150Z 21005KT 15/12 A2995 RMK A01 T01450122  RH  086%=      5-min Rain = 0
KNH1 221151Z 21005KT 15/12 A2995 RMK A01 T01450121  RH  086%=      5-min Rain = 0
KNH1 221152Z 21005KT 14/12 A2995 RMK A01 T01440122  RH  086%=      5-min Rain = 0
KNH1 221153Z 21005KT 14/12 A2995 RMK A01 T01440122  RH  086%=      5-min Rain = 0
KNH1 221154Z 21005KT 14/12 A2995 RMK A01 T01440122  RH  086%=      5-min Rain = 0
KNH1 221155Z 21004KT 14/12 A2995 RMK A01 T01440122  RH  086%=      5-min Rain = 0
KNH1 221156Z 21003KT 14/12 A2995 RMK A01 T01440122  RH  086%=      5-min Rain = 0
KNH1 221157Z 21003KT 14/12 A2995 RMK A01 T01440121  RH  086%=      5-min Rain = 0
KNH1 221158Z 22002KT 14/12 A2995 RMK A01 T01430121  RH  087%=      5-min Rain = 0
KNH1 221159Z 27002KT 14/12 A2996 RMK A01 T01430121  RH  087%=      5-min Rain = 0
KNH1 221200Z 33004KT 14/12 A2996 RMK A01 T01430122  RH  087%=      5-min Rain = 0
KNH1 221201Z 34008KT 14/12 A2997 RMK A01 T01420122  RH  088%=      5-min Rain = 0
KNH1 221202Z 34009KT 14/12 A2997 RMK A01 T01420122  RH  088%=      5-min Rain = 0
KNH1 221203Z 36009KT 14/12 A2997 RMK A01 T01410122  RH  089%=      5-min Rain = 0
KNH1 221204Z 36009KT 14/12 A2997 RMK A01 T01400122  RH  089%=      5-min Rain = 0
KNH1 221205Z 36009KT 14/12 A2997 RMK A01 T01380122  RH  090%=      5-min Rain = 0
KNH1 221206Z 36008KT 14/12 A2997 RMK A01 T01380121  RH  090%=      5-min Rain = 0
KNH1 221207Z 35007KT 14/12 A2997 RMK A01 T01380122  RH  090%=      5-min Rain = 0
KNH1 221208Z 33003KT 14/12 A2997 RMK A01 T01390123  RH  090%=      5-min Rain = 0
KNH1 221209Z 32001KT 14/12 A2997 RMK A01 T01410124  RH  090%=      5-min Rain = 0
KNH1 221210Z 24001KT 14/13 A2997 RMK A01 T01430125  RH  089%=      5-min Rain = 0
KNH1 221211Z 20002KT 15/13 A2997 RMK A01 T01450125  RH  088%=      5-min Rain = 0
KNH1 221212Z 33001KT 15/13 A2997 RMK A01 T01460125  RH  087%=      5-min Rain = 0
KNH1 221213Z 35007KT 15/13 A2998 RMK A01 T01470125  RH  087%=      5-min Rain = 0
KNH1 221214Z 00010KT 15/12 A2999 RMK A01 T01480124  RH  086%=      5-min Rain = 0
KNH1 221215Z 00009KT 15/12 A2999 RMK A01 T01480124  RH  086%=      5-min Rain = 0
KNH1 221216Z 34011KT 15/13 A2999 RMK A01 T01490125  RH  086%=      5-min Rain = 0
KNH1 221217Z 34015KT 15/13 A2999 RMK A01 T01510127  RH  085%=      5-min Rain = 0
KNH1 221218Z 35013KT 15/13 A30 RMK A01 T01520127  RH  085%=      5-min Rain = 0
KNH1 221219Z 34012KT 15/13 A30 RMK A01 T01530127  RH  084%=      5-min Rain = 0
KNH1 221220Z 33008KT 15/13 A30 RMK A01 T01540127  RH  084%=      5-min Rain = 0
KNH1 221221Z 30006G11KT 16/13 A30 RMK A01 T01580128  RH  082%=      5-min Rain = 0
KNH1 221222Z 26005KT 16/13 A2999 RMK A01 T01620128  RH  080%=      5-min Rain = 0
KNH1 221223Z 24006KT 16/13 A2999 RMK A01 T01630127  RH  079%=      5-min Rain = 0
KNH1 221224Z 23006KT 16/13 A2999 RMK A01 T01640126  RH  078%=      5-min Rain = 0
KNH1 221225Z 28005KT 16/13 A2999 RMK A01 T01640126  RH  078%=      5-min Rain = 0
KNH1 221226Z 30007KT 16/13 A30 RMK A01 T01640127  RH  079%=      5-min Rain = 0
KNH1 221227Z 31007KT 16/13 A30 RMK A01 T01640127  RH  078%=      5-min Rain = 0
KNH1 221228Z 32006KT 17/13 A30 RMK A01 T01650127  RH  078%=      5-min Rain = 0
KNH1 221229Z 34007KT 17/13 A3001 RMK A01 T01650127  RH  078%=      5-min Rain = 0
KNH1 221230Z 34009KT 16/13 A3001 RMK A01 T01640127  RH  079%=      5-min Rain = 0
KNH1 221231Z 34008KT 16/13 A3001 RMK A01 T01610127  RH  080%=      5-min Rain = 0
KNH1 221232Z 33006KT 16/13 A3001 RMK A01 T01590126  RH  081%=      5-min Rain = 0
KNH1 221233Z 31004KT 16/13 A3001 RMK A01 T01580127  RH  082%=      5-min Rain = 0
KNH1 221234Z 29003KT 16/13 A3001 RMK A01 T01580126  RH  081%=      5-min Rain = 0
KNH1 221235Z 30003KT 16/13 A30 RMK A01 T01580126  RH  081%=      5-min Rain = 0
KNH1 221236Z 29004KT 16/13 A30 RMK A01 T01580126  RH  082%=      5-min Rain = 0
KNH1 221237Z 31003KT 16/13 A30 RMK A01 T01580126  RH  082%=      5-min Rain = 0
KNH1 221238Z 33003KT 16/13 A30 RMK A01 T01580126  RH  081%=      5-min Rain = 0
KNH1 221239Z 34004KT 16/13 A30 RMK A01 T01580126  RH  081%=      5-min Rain = 0
KNH1 221240Z 35004KT 16/13 A3001 RMK A01 T01580126  RH  081%=      5-min Rain = 0
KNH1 221241Z 00004KT 16/13 A3001 RMK A01 T01570126  RH  082%=      5-min Rain = 0
KNH1 221242Z 00005KT 16/13 A3001 RMK A01 T01560126  RH  083%=      5-min Rain = 0
KNH1 221243Z 01004KT 16/13 A3001 RMK A01 T01550126  RH  083%=      5-min Rain = 0
KNH1 221244Z 01003KT 16/13 A3001 RMK A01 T01550126  RH  083%=      5-min Rain = 0
KNH1 221245Z 01003KT 16/13 A3001 RMK A01 T01550126  RH  083%=      5-min Rain = 0
KNH1 221246Z 02003KT 15/13 A3001 RMK A01 T01540126  RH  083%=      5-min Rain = 0
KNH1 221247Z 01002KT 15/13 A3001 RMK A01 T01540126  RH  083%=      5-min Rain = 0
KNH1 221248Z 01001KT 15/13 A30 RMK A01 T01540125  RH  083%=      5-min Rain = 0
KNH1 221249Z 01001KT 15/13 A30 RMK A01 T01540125  RH  083%=      5-min Rain = 0
KNH1 221250Z 01001KT 15/13 A30 RMK A01 T01540125  RH  083%=      5-min Rain = 0
KNH1 221251Z 35001KT 15/13 A30 RMK A01 T01540125  RH  083%=      5-min Rain = 0
KNH1 221252Z 35003KT 15/13 A3001 RMK A01 T01540125  RH  083%=      5-min Rain = 0
KNH1 221253Z 00005KT 15/13 A3001 RMK A01 T01530125  RH  083%=      5-min Rain = 0
KNH1 221254Z 00005KT 15/13 A3001 RMK A01 T01520125  RH  084%=      5-min Rain = 0
KNH1 221255Z 00005KT 15/13 A3001 RMK A01 T01510125  RH  084%=      5-min Rain = 0
KNH1 221256Z 00006KT 15/13 A3002 RMK A01 T01510125  RH  084%=      5-min Rain = 0
KNH1 221257Z 00005KT 15/13 A3002 RMK A01 T01510125  RH  084%=      5-min Rain = 0
KNH1 221258Z 01005KT 15/12 A3002 RMK A01 T01510124  RH  084%=      5-min Rain = 0
KNH1 221259Z 01003KT 15/12 A3002 RMK A01 T01510124  RH  084%=      5-min Rain = 0
KNH1 221300Z 02003KT 15/13 A3002 RMK A01 T01530125  RH  083%=      5-min Rain = 0
KNH1 221301Z 05001KT 15/12 A3002 RMK A01 T01520123  RH  083%=      5-min Rain = 0
KNH1 221302Z 07001KT 15/12 A3001 RMK A01 T01530124  RH  082%=      5-min Rain = 0
KNH1 221303Z 05001KT 15/12 A3002 RMK A01 T01540124  RH  082%=      5-min Rain = 0
KNH1 221304Z 03003KT 16/12 A3002 RMK A01 T01550124  RH  082%=      5-min Rain = 0
KNH1 221305Z 02004KT 16/12 A3002 RMK A01 T01550124  RH  082%=      5-min Rain = 0
KNH1 221306Z 01004KT 16/13 A3002 RMK A01 T01550125  RH  082%=      5-min Rain = 0
KNH1 221307Z 02005KT 15/12 A3002 RMK A01 T01540124  RH  082%=      5-min Rain = 0
KNH1 221308Z 02005KT 16/12 A3002 RMK A01 T01550124  RH  082%=      5-min Rain = 0
KNH1 221309Z 03004KT 16/12 A3002 RMK A01 T01550123  RH  082%=      5-min Rain = 0
KNH1 221310Z 03004KT 16/12 A3002 RMK A01 T01550123  RH  081%=      5-min Rain = 0
KNH1 221311Z 04003KT 16/12 A3002 RMK A01 T01560123  RH  081%=      5-min Rain = 0
KNH1 221312Z 07002KT 16/12 A3002 RMK A01 T01560123  RH  081%=      5-min Rain = 0
KNH1 221313Z 11002KT 16/12 A3002 RMK A01 T01560123  RH  081%=      5-min Rain = 0
KNH1 221314Z 13003KT 16/12 A3002 RMK A01 T01570124  RH  081%=      5-min Rain = 0
KNH1 221315Z 12003KT 16/12 A3002 RMK A01 T01570124  RH  081%=      5-min Rain = 0
KNH1 221316Z 08002KT 16/12 A3002 RMK A01 T01570124  RH  081%=      5-min Rain = 0
KNH1 221317Z 05003KT 16/12 A3002 RMK A01 T01570124  RH  081%=      5-min Rain = 0
KNH1 221318Z 03005KT 16/13 A3002 RMK A01 T01560125  RH  082%=      5-min Rain = 0
KNH1 221319Z 03006KT 16/12 A3003 RMK A01 T01550124  RH  082%=      5-min Rain = 0
KNH1 221320Z 03006KT 16/12 A3003 RMK A01 T01550123  RH  081%=      5-min Rain = 0
KNH1 221321Z 03005KT 16/12 A3003 RMK A01 T01560122  RH  080%=      5-min Rain = 0
KNH1 221322Z 03005KT 16/12 A3003 RMK A01 T01560122  RH  080%=      5-min Rain = 0
KNH1 221323Z 04004KT 16/12 A3003 RMK A01 T01560122  RH  080%=      5-min Rain = 0
KNH1 221324Z 06004KT 16/12 A3003 RMK A01 T01560123  RH  081%=      5-min Rain = 0
KNH1 221325Z 08003KT 16/12 A3002 RMK A01 T01560123  RH  081%=      5-min Rain = 0
KNH1 221326Z 10003KT 16/12 A3002 RMK A01 T01560123  RH  081%=      5-min Rain = 0
KNH1 221327Z 11003KT 16/12 A3002 RMK A01 T01560123  RH  081%=      5-min Rain = 0
KNH1 221328Z 11003KT 16/12 A3002 RMK A01 T01560123  RH  081%=      5-min Rain = 0
KNH1 221329Z 07003KT 16/12 A3002 RMK A01 T01560123  RH  081%=      5-min Rain = 0
KNH1 221330Z 04004KT 16/12 A3002 RMK A01 T01570123  RH  080%=      5-min Rain = 0
KNH1 221331Z 03005KT 16/13 A3003 RMK A01 T01570125  RH  081%=      5-min Rain = 0
KNH1 221332Z 02007KT 16/12 A3003 RMK A01 T01570124  RH  081%=      5-min Rain = 0
KNH1 221333Z 02007KT 16/12 A3003 RMK A01 T01580123  RH  080%=      5-min Rain = 0
KNH1 221334Z 02006KT 16/12 A3003 RMK A01 T01580123  RH  080%=      5-min Rain = 0
KNH1 221335Z 03006KT 16/12 A3003 RMK A01 T01580124  RH  080%=      5-min Rain = 0
KNH1 221336Z 04004KT 16/12 A3003 RMK A01 T01580124  RH  080%=      5-min Rain = 0
KNH1 221337Z 06004KT 16/12 A3003 RMK A01 T01570124  RH  080%=      5-min Rain = 0
KNH1 221338Z 09003KT 16/12 A3002 RMK A01 T01580123  RH  080%=      5-min Rain = 0
KNH1 221339Z 13003KT 16/12 A3002 RMK A01 T01580124  RH  080%=      5-min Rain = 0
KNH1 221340Z 14004KT 16/13 A3002 RMK A01 T01590125  RH  080%=      5-min Rain = 0
KNH1 221341Z 13004KT 16/13 A3002 RMK A01 T01600126  RH  080%=      5-min Rain = 0
KNH1 221342Z 11003KT 16/13 A3002 RMK A01 T01610126  RH  080%=      5-min Rain = 0
KNH1 221343Z 07003KT 16/13 A3002 RMK A01 T01620126  RH  079%=      5-min Rain = 0
KNH1 221344Z 04004KT 16/13 A3002 RMK A01 T01630127  RH  079%=      5-min Rain = 0
KNH1 221345Z 03005KT 16/13 A3002 RMK A01 T01630128  RH  079%=      5-min Rain = 0
KNH1 221346Z 03005KT 16/13 A3002 RMK A01 T01640127  RH  079%=      5-min Rain = 0
KNH1 221347Z 03005KT 17/13 A3002 RMK A01 T01650127  RH  078%=      5-min Rain = 0
KNH1 221348Z 04005KT 17/13 A3003 RMK A01 T01650127  RH  078%=      5-min Rain = 0
KNH1 221349Z 06004KT 17/13 A3003 RMK A01 T01650126  RH  078%=      5-min Rain = 0
KNH1 221350Z 07003KT 17/13 A3003 RMK A01 T01650126  RH  078%=      5-min Rain = 0
KNH1 221351Z 09003KT 17/13 A3002 RMK A01 T01650127  RH  078%=      5-min Rain = 0
KNH1 221352Z 10004KT 17/13 A3002 RMK A01 T01650127  RH  078%=      5-min Rain = 0
KNH1 221353Z 11003KT 17/13 A3002 RMK A01 T01660128  RH  078%=      5-min Rain = 0
KNH1 221354Z 10003KT 17/13 A3002 RMK A01 T01670128  RH  078%=      5-min Rain = 0
KNH1 221355Z 07002KT 17/13 A3002 RMK A01 T01670128  RH  078%=      5-min Rain = 0
KNH1 221356Z 03003KT 17/13 A3002 RMK A01 T01670129  RH  078%=      5-min Rain = 0
KNH1 221357Z 02003KT 17/13 A3002 RMK A01 T01670131  RH  079%=      5-min Rain = 0
KNH1 221358Z 03004KT 17/13 A3003 RMK A01 T01680129  RH  078%=      5-min Rain = 0
KNH1 221359Z 03004KT 17/13 A3003 RMK A01 T01680129  RH  078%=      5-min Rain = 0
KNH1 221400Z 04003KT 17/13 A3003 RMK A01 T01690129  RH  077%=      5-min Rain = 0
KNH1 221401Z 07003KT 17/13 A3003 RMK A01 T01700129  RH  077%=      5-min Rain = 0
KNH1 221402Z 09003KT 17/13 A3003 RMK A01 T01700130  RH  077%=      5-min Rain = 0
KNH1 221403Z 11003KT 17/13 A3003 RMK A01 T01710132  RH  077%=      5-min Rain = 0
KNH1 221404Z 11003KT 17/13 A3003 RMK A01 T01720132  RH  077%=      5-min Rain = 0
KNH1 221405Z 11003KT 17/13 A3003 RMK A01 T01740133  RH  077%=      5-min Rain = 0
KNH1 221406Z 10002KT 18/13 A3003 RMK A01 T01760133  RH  076%=      5-min Rain = 0
KNH1 221407Z 10003KT 18/13 A3003 RMK A01 T01780133  RH  075%=      5-min Rain = 0
KNH1 221408Z 08003KT 18/13 A3003 RMK A01 T01790132  RH  074%=      5-min Rain = 0
KNH1 221409Z 06003KT 18/13 A3003 RMK A01 T01790133  RH  074%=      5-min Rain = 0
KNH1 221410Z 04003KT 18/14 A3003 RMK A01 T01790135  RH  075%=      5-min Rain = 0
KNH1 221411Z 04003KT 18/13 A3003 RMK A01 T01790132  RH  074%=      5-min Rain = 0
KNH1 221412Z 03003KT 18/13 A3003 RMK A01 T01800131  RH  073%=      5-min Rain = 0
KNH1 221413Z 04003KT 18/13 A3003 RMK A01 T01790132  RH  074%=      5-min Rain = 0
KNH1 221414Z 05003KT 18/13 A3003 RMK A01 T01800132  RH  074%=      5-min Rain = 0
KNH1 221415Z 08003KT 18/13 A3003 RMK A01 T01800131  RH  073%=      5-min Rain = 0
KNH1 221416Z 09003KT 18/13 A3003 RMK A01 T01820133  RH  073%=      5-min Rain = 0
KNH1 221417Z 09004KT 18/14 A3003 RMK A01 T01830136  RH  074%=      5-min Rain = 0
KNH1 221418Z 09004KT 19/14 A3003 RMK A01 T01860137  RH  073%=      5-min Rain = 0
KNH1 221419Z 10002KT 19/14 A3003 RMK A01 T01870136  RH  073%=      5-min Rain = 0
KNH1 221420Z 09003KT 19/14 A3003 RMK A01 T01880138  RH  072%=      5-min Rain = 0
KNH1 221421Z 08002KT 19/14 A3003 RMK A01 T01890135  RH  071%=      5-min Rain = 0
KNH1 221422Z 06003KT 19/13 A3003 RMK A01 T01890134  RH  070%=      5-min Rain = 0
KNH1 221423Z 05003KT 19/13 A3003 RMK A01 T01890133  RH  070%=      5-min Rain = 0
KNH1 221424Z 04003KT 19/13 A3003 RMK A01 T01880133  RH  071%=      5-min Rain = 0
KNH1 221425Z 03004KT 19/13 A3003 RMK A01 T01870134  RH  071%=      5-min Rain = 0
KNH1 221426Z 04004KT 19/13 A3003 RMK A01 T01880133  RH  070%=      5-min Rain = 0
KNH1 221427Z 04005KT 19/13 A3003 RMK A01 T01890134  RH  071%=      5-min Rain = 0
KNH1 221428Z 04006KT 19/13 A3003 RMK A01 T01890131  RH  069%=      5-min Rain = 0
KNH1 221429Z 02007KT 19/13 A3003 RMK A01 T01880128  RH  068%=      5-min Rain = 0
KNH1 221430Z 05009KT 19/13 A3003 RMK A01 T01860125  RH  068%=      5-min Rain = 0
KNH1 221431Z 03008KT 18/12 A3003 RMK A01 T01830118  RH  066%=      5-min Rain = 0
KNH1 221432Z 03008KT 18/11 A3003 RMK A01 T01800114  RH  065%=      5-min Rain = 0
KNH1 221433Z 03008KT 18/11 A3003 RMK A01 T01770111  RH  065%=      5-min Rain = 0
KNH1 221434Z 03007KT 18/11 A3003 RMK A01 T01760113  RH  066%=      5-min Rain = 0
KNH1 221435Z 03009KT 18/11 A3003 RMK A01 T01750110  RH  065%=      5-min Rain = 0
KNH1 221436Z 04011KT 18/11 A3003 RMK A01 T01750107  RH  064%=      5-min Rain = 0
KNH1 221437Z 05011KT 17/10 A3003 RMK A01 T01730100  RH  062%=      5-min Rain = 0
KNH1 221438Z 04010KT 17/10 A3003 RMK A01 T01700096  RH  061%=      5-min Rain = 0
KNH1 221439Z 04008KT 17/10 A3003 RMK A01 T01690096  RH  062%=      5-min Rain = 0
KNH1 221440Z 05008KT 17/10 A3003 RMK A01 T01690097  RH  063%=      5-min Rain = 0
KNH1 221441Z 05007KT 17/10 A3003 RMK A01 T01680098  RH  063%=      5-min Rain = 0
KNH1 221442Z 04008KT 17/10 A3003 RMK A01 T01690099  RH  063%=      5-min Rain = 0
KNH1 221443Z 03009KT 17/10 A3003 RMK A01 T01700098  RH  063%=      5-min Rain = 0
KNH1 221444Z 03010KT 17/10 A3003 RMK A01 T01700098  RH  063%=      5-min Rain = 0
KNH1 221445Z 01012KT 17/09 A3003 RMK A01 T01700092  RH  060%=      5-min Rain = 0
KNH1 221446Z 03010KT 17/09 A3003 RMK A01 T01680090  RH  060%=      5-min Rain = 0
KNH1 221447Z 04008KT 17/09 A3003 RMK A01 T01670089  RH  060%=      5-min Rain = 0
KNH1 221448Z 06006KT 17/09 A3003 RMK A01 T01660090  RH  061%=      5-min Rain = 0
KNH1 221449Z 06007KT 17/09 A3003 RMK A01 T01660091  RH  061%=      5-min Rain = 0
KNH1 221450Z 04007KT 17/09 A3003 RMK A01 T01660092  RH  062%=      5-min Rain = 0
KNH1 221451Z 03009KT 17/09 A3003 RMK A01 T01660091  RH  061%=      5-min Rain = 0
KNH1 221452Z 04011KT 17/09 A3003 RMK A01 T01660088  RH  060%=      5-min Rain = 0
KNH1 221453Z 04011KT 17/09 A3003 RMK A01 T01650087  RH  060%=      5-min Rain = 0
KNH1 221454Z 04011KT 16/09 A3004 RMK A01 T01640086  RH  060%=      5-min Rain = 0
KNH1 221455Z 04009KT 16/09 A3004 RMK A01 T01630086  RH  060%=      5-min Rain = 0
KNH1 221456Z 04010KT 16/09 A3004 RMK A01 T01620086  RH  061%=      5-min Rain = 0
KNH1 221457Z 06008KT 16/09 A3004 RMK A01 T01620087  RH  061%=      5-min Rain = 0
KNH1 221458Z 05010KT 16/09 A3004 RMK A01 T01620086  RH  061%=      5-min Rain = 0
KNH1 221459Z 05011KT 16/09 A3004 RMK A01 T01620086  RH  061%=      5-min Rain = 0
KNH1 221500Z 04010KT 16/09 A3004 RMK A01 T01620086  RH  061%=      5-min Rain = 0
KNH1 221501Z 04010KT 16/09 A3004 RMK A01 T01640089  RH  061%=      5-min Rain = 0
KNH1 221502Z 05011KT 17/09 A3004 RMK A01 T01660089  RH  060%=      5-min Rain = 0
KNH1 221503Z 05010KT 17/09 A3004 RMK A01 T01670088  RH  059%=      5-min Rain = 0
KNH1 221504Z 05008KT 17/09 A3004 RMK A01 T01680089  RH  060%=      5-min Rain = 0
KNH1 221505Z 05010KT 17/09 A3004 RMK A01 T01700090  RH  059%=      5-min Rain = 0
KNH1 221506Z 04011KT 17/09 A3004 RMK A01 T01700087  RH  058%=      5-min Rain = 0
KNH1 221507Z 04012KT 17/09 A3004 RMK A01 T01680085  RH  058%=      5-min Rain = 0
KNH1 221508Z 04012KT 17/09 A3004 RMK A01 T01670086  RH  059%=      5-min Rain = 0
KNH1 221509Z 05010KT 17/09 A3004 RMK A01 T01670086  RH  059%=      5-min Rain = 0
KNH1 221510Z 04010KT 17/09 A3004 RMK A01 T01680088  RH  059%=      5-min Rain = 0
KNH1 221511Z 04010KT 17/09 A3004 RMK A01 T01690087  RH  058%=      5-min Rain = 0
KNH1 221512Z 04009KT 17/09 A3004 RMK A01 T01690086  RH  058%=      5-min Rain = 0
KNH1 221513Z 04009KT 17/09 A3004 RMK A01 T01690087  RH  058%=      5-min Rain = 0
KNH1 221514Z 05010KT 17/09 A3004 RMK A01 T01690087  RH  058%=      5-min Rain = 0
KNH1 221515Z 04010G15KT 17/09 A3004 RMK A01 T01710090  RH  059%=      5-min Rain = 0
KNH1 221516Z 04010KT 17/09 A3004 RMK A01 T01720088  RH  058%=      5-min Rain = 0
KNH1 221517Z 05009KT 17/09 A3004 RMK A01 T01730088  RH  057%=      5-min Rain = 0
KNH1 221518Z 04010KT 17/09 A3004 RMK A01 T01740089  RH  057%=      5-min Rain = 0
KNH1 221519Z 04010KT 17/09 A3004 RMK A01 T01740089  RH  057%=      5-min Rain = 0
KNH1 221520Z 02009KT 18/09 A3004 RMK A01 T01750088  RH  057%=      5-min Rain = 0
KNH1 221521Z 03011KT 18/09 A3004 RMK A01 T01750089  RH  057%=      5-min Rain = 0
KNH1 221522Z 04011KT 18/09 A3004 RMK A01 T01760088  RH  056%=      5-min Rain = 0
KNH1 221523Z 05010KT 18/09 A3004 RMK A01 T01750089  RH  057%=      5-min Rain = 0
KNH1 221524Z 04010G15KT 18/09 A3004 RMK A01 T01760091  RH  057%=      5-min Rain = 0
KNH1 221525Z 03011KT 18/09 A3004 RMK A01 T01770089  RH  056%=      5-min Rain = 0
KNH1 221526Z 03011KT 18/09 A3004 RMK A01 T01770088  RH  056%=      5-min Rain = 0
KNH1 221527Z 04012KT 18/09 A3004 RMK A01 T01770089  RH  056%=      5-min Rain = 0
KNH1 221528Z 05010KT 18/09 A3004 RMK A01 T01760088  RH  056%=      5-min Rain = 0
KNH1 221529Z 03008KT 18/09 A3004 RMK A01 T01750089  RH  057%=      5-min Rain = 0
KNH1 221530Z 04010KT 18/09 A3004 RMK A01 T01760089  RH  056%=      5-min Rain = 0
KNH1 221531Z 04008KT 18/09 A3004 RMK A01 T01780089  RH  056%=      5-min Rain = 0
KNH1 221532Z 05011KT 18/09 A3004 RMK A01 T01790091  RH  056%=      5-min Rain = 0
KNH1 221533Z 06012KT 18/09 A3004 RMK A01 T01800090  RH  055%=      5-min Rain = 0
KNH1 221534Z 05011KT 18/09 A3004 RMK A01 T01800091  RH  056%=      5-min Rain = 0
KNH1 221535Z 04009KT 18/09 A3004 RMK A01 T01810092  RH  056%=      5-min Rain = 0
KNH1 221536Z 05011KT 18/09 A3004 RMK A01 T01830092  RH  055%=      5-min Rain = 0
KNH1 221537Z 04011KT 18/09 A3004 RMK A01 T01840091  RH  055%=      5-min Rain = 0
KNH1 221538Z 04011KT 18/09 A3004 RMK A01 T01820090  RH  055%=      5-min Rain = 0
KNH1 221539Z 03012KT 18/09 A3003 RMK A01 T01810089  RH  055%=      5-min Rain = 0
KNH1 221540Z 03013KT 18/09 A3003 RMK A01 T01800088  RH  055%=      5-min Rain = 0
KNH1 221541Z 03013KT 18/09 A3003 RMK A01 T01800088  RH  055%=      5-min Rain = 0
KNH1 221542Z 03013KT 18/09 A3003 RMK A01 T01810089  RH  055%=      5-min Rain = 0
KNH1 221543Z 03011KT 18/09 A3003 RMK A01 T01820090  RH  055%=      5-min Rain = 0
KNH1 221544Z 04011KT 18/09 A3003 RMK A01 T01840091  RH  055%=      5-min Rain = 0
KNH1 221545Z 05012KT 19/09 A3003 RMK A01 T01850090  RH  054%=      5-min Rain = 0
KNH1 221546Z 03013KT 18/09 A3003 RMK A01 T01840090  RH  054%=      5-min Rain = 0
KNH1 221547Z 04010KT 18/09 A3003 RMK A01 T01830091  RH  055%=      5-min Rain = 0
KNH1 221548Z 06012KT 19/09 A3003 RMK A01 T01850091  RH  054%=      5-min Rain = 0
KNH1 221549Z 05012G17KT 19/09 A3003 RMK A01 T01850093  RH  055%=      5-min Rain = 0
KNH1 221550Z 05015KT 19/09 A3003 RMK A01 T01860091  RH  054%=      5-min Rain = 0
KNH1 221551Z 04015KT 19/09 A3003 RMK A01 T01850090  RH  054%=      5-min Rain = 0
KNH1 221552Z 05012G18KT 18/09 A3002 RMK A01 T01830090  RH  055%=      5-min Rain = 0
KNH1 221553Z 04012G17KT 18/09 A3002 RMK A01 T01830090  RH  055%=      5-min Rain = 0
KNH1 221554Z 04012KT 18/09 A3002 RMK A01 T01840092  RH  055%=      5-min Rain = 0
KNH1 221555Z 04011KT 18/09 A3002 RMK A01 T01840090  RH  054%=      5-min Rain = 0
KNH1 221556Z 05009KT 18/09 A3002 RMK A01 T01840093  RH  055%=      5-min Rain = 0
KNH1 221557Z 04010G15KT 19/09 A3003 RMK A01 T01860094  RH  055%=      5-min Rain = 0
KNH1 221558Z 03015G20KT 19/09 A3002 RMK A01 T01870090  RH  053%=      5-min Rain = 0
KNH1 221559Z 04013KT 19/09 A3003 RMK A01 T01850090  RH  054%=      5-min Rain = 0
KNH1 221600Z 05013KT 18/09 A3002 RMK A01 T01840090  RH  054%=      5-min Rain = 0
KNH1 221601Z 04013KT 19/09 A3002 RMK A01 T01850092  RH  055%=      5-min Rain = 0
KNH1 221602Z 05012KT 19/09 A3003 RMK A01 T01860093  RH  054%=      5-min Rain = 0
KNH1 221603Z 06010KT 19/09 A3003 RMK A01 T01870093  RH  054%=      5-min Rain = 0
KNH1 221604Z 06010KT 19/10 A3003 RMK A01 T01890095  RH  054%=      5-min Rain = 0
KNH1 221605Z 06011KT 19/09 A3003 RMK A01 T01910094  RH  054%=      5-min Rain = 0
KNH1 221606Z 06012KT 19/09 A3003 RMK A01 T01890092  RH  053%=      5-min Rain = 0
KNH1 221607Z 05009G15KT 19/09 A3003 RMK A01 T01860093  RH  055%=      5-min Rain = 0
KNH1 221608Z 05013KT 19/09 A3003 RMK A01 T01860093  RH  055%=      5-min Rain = 0
KNH1 221609Z 07012KT 19/09 A3003 RMK A01 T01850094  RH  055%=      5-min Rain = 0
KNH1 221610Z 07010KT 18/09 A3004 RMK A01 T01840094  RH  056%=      5-min Rain = 0
KNH1 221611Z 06009KT 19/10 A3004 RMK A01 T01850096  RH  056%=      5-min Rain = 0
KNH1 221612Z 06011KT 19/10 A3004 RMK A01 T01860096  RH  056%=      5-min Rain = 0
KNH1 221613Z 06010KT 19/10 A3004 RMK A01 T01870098  RH  056%=      5-min Rain = 0
KNH1 221614Z 06010KT 19/10 A3004 RMK A01 T01880096  RH  055%=      5-min Rain = 0
KNH1 221615Z 06008KT 19/10 A3004 RMK A01 T01870096  RH  055%=      5-min Rain = 0
KNH1 221616Z 06009KT 19/10 A3005 RMK A01 T01870096  RH  055%=      5-min Rain = 0
KNH1 221617Z 05010KT 19/10 A3005 RMK A01 T01870096  RH  055%=      5-min Rain = 0
KNH1 221618Z 05009KT 19/10 A3005 RMK A01 T01870097  RH  056%=      5-min Rain = 0
KNH1 221619Z 06009KT 19/10 A3005 RMK A01 T01870098  RH  056%=      5-min Rain = 0
KNH1 221620Z 05010KT 19/10 A3005 RMK A01 T01870096  RH  055%=      5-min Rain = 0
KNH1 221621Z 05011KT 19/10 A3005 RMK A01 T01880096  RH  055%=      5-min Rain = 0
KNH1 221622Z 06010KT 19/10 A3005 RMK A01 T01880096  RH  055%=      5-min Rain = 0
KNH1 221623Z 05008KT 19/10 A3005 RMK A01 T01870096  RH  055%=      5-min Rain = 0
KNH1 221624Z 05010KT 19/10 A3005 RMK A01 T01880097  RH  055%=      5-min Rain = 0
KNH1 221625Z 06009KT 19/10 A3005 RMK A01 T01890097  RH  055%=      5-min Rain = 0
KNH1 221626Z 05011KT 19/10 A3005 RMK A01 T01900098  RH  055%=      5-min Rain = 0
KNH1 221627Z 06010KT 19/10 A3005 RMK A01 T01900097  RH  055%=      5-min Rain = 0
KNH1 221628Z 05010KT 19/10 A3005 RMK A01 T01880098  RH  056%=      5-min Rain = 0
KNH1 221629Z 06009KT 19/10 A3005 RMK A01 T01890098  RH  055%=      5-min Rain = 0
KNH1 221630Z 07011KT 19/10 A3004 RMK A01 T01890098  RH  055%=      5-min Rain = 0
KNH1 221631Z 06012KT 19/10 A3004 RMK A01 T01890097  RH  055%=      5-min Rain = 0
KNH1 221632Z 06010KT 19/10 A3004 RMK A01 T01890100  RH  056%=      5-min Rain = 0
KNH1 221633Z 05011KT 19/10 A3004 RMK A01 T01910098  RH  055%=      5-min Rain = 0
KNH1 221634Z 05010KT 19/10 A3004 RMK A01 T01900098  RH  055%=      5-min Rain = 0
KNH1 221635Z 05011KT 19/10 A3004 RMK A01 T01900100  RH  056%=      5-min Rain = 0
KNH1 221636Z 06010KT 19/10 A3004 RMK A01 T01900098  RH  055%=      5-min Rain = 0
KNH1 221637Z 06009KT 19/10 A3004 RMK A01 T01900100  RH  056%=      5-min Rain = 0
KNH1 221638Z 05013KT 19/10 A3004 RMK A01 T01910098  RH  055%=      5-min Rain = 0
KNH1 221639Z 05010KT 19/10 A3004 RMK A01 T01920099  RH  055%=      5-min Rain = 0
KNH1 221640Z 04010G16KT 19/10 A3005 RMK A01 T01920099  RH  055%=      5-min Rain = 0
KNH1 221641Z 06010KT 19/10 A3005 RMK A01 T01930101  RH  055%=      5-min Rain = 0
KNH1 221642Z 06008KT 20/11 A3005 RMK A01 T01950105  RH  056%=      5-min Rain = 0
KNH1 221643Z 06009KT 20/10 A3005 RMK A01 T01960104  RH  055%=      5-min Rain = 0
KNH1 221644Z 06008KT 20/10 A3005 RMK A01 T01950104  RH  056%=      5-min Rain = 0
KNH1 221645Z 05009KT 19/10 A3005 RMK A01 T01940102  RH  055%=      5-min Rain = 0
KNH1 221646Z 05009KT 19/10 A3005 RMK A01 T01930103  RH  056%=      5-min Rain = 0
KNH1 221647Z 06013KT 19/10 A3005 RMK A01 T01940103  RH  056%=      5-min Rain = 0
KNH1 221648Z 06010KT 19/10 A3005 RMK A01 T01930103  RH  056%=      5-min Rain = 0
KNH1 221649Z 06009KT 19/10 A3005 RMK A01 T01930103  RH  056%=      5-min Rain = 0
KNH1 221650Z 05010KT 19/10 A3005 RMK A01 T01930104  RH  056%=      5-min Rain = 0
KNH1 221651Z 06008KT 19/11 A3005 RMK A01 T01930105  RH  057%=      5-min Rain = 0
KNH1 221652Z 06009KT 19/10 A3005 RMK A01 T01940104  RH  056%=      5-min Rain = 0
KNH1 221653Z 05008KT 20/11 A3005 RMK A01 T01950106  RH  057%=      5-min Rain = 0
KNH1 221654Z 07010KT 20/11 A3005 RMK A01 T01960107  RH  056%=      5-min Rain = 0
KNH1 221655Z 07010KT 20/11 A3005 RMK A01 T01960105  RH  056%=      5-min Rain = 0
KNH1 221656Z 06009KT 20/11 A3005 RMK A01 T01960106  RH  056%=      5-min Rain = 0
KNH1 221657Z 06008KT 20/11 A3005 RMK A01 T01960105  RH  056%=      5-min Rain = 0
KNH1 221658Z 05008KT 20/10 A3005 RMK A01 T01960104  RH  055%=      5-min Rain = 0
KNH1 221659Z 06009KT 20/11 A3005 RMK A01 T01950106  RH  056%=      5-min Rain = 0
KNH1 221700Z 05007KT 20/11 A3005 RMK A01 T01950106  RH  056%=      5-min Rain = 0
KNH1 221701Z 05009KT 20/11 A3005 RMK A01 T01970109  RH  057%=      5-min Rain = 0
KNH1 221702Z 07009KT 20/11 A3005 RMK A01 T01970107  RH  056%=      5-min Rain = 0
KNH1 221703Z 07008KT 20/11 A3005 RMK A01 T01970106  RH  056%=      5-min Rain = 0
KNH1 221704Z 04008KT 20/11 A3005 RMK A01 T01960106  RH  056%=      5-min Rain = 0
KNH1 221705Z 06010KT 20/11 A3005 RMK A01 T01950105  RH  056%=      5-min Rain = 0
KNH1 221706Z 05009KT 19/10 A3005 RMK A01 T01930104  RH  056%=      5-min Rain = 0
KNH1 221707Z 07008KT 19/11 A3005 RMK A01 T01930106  RH  057%=      5-min Rain = 0
KNH1 221708Z 07009KT 19/11 A3005 RMK A01 T01940107  RH  057%=      5-min Rain = 0
KNH1 221709Z 06009KT 20/11 A3005 RMK A01 T01950107  RH  057%=      5-min Rain = 0
KNH1 221710Z 07008KT 20/11 A3005 RMK A01 T01960107  RH  056%=      5-min Rain = 0
KNH1 221711Z 05010KT 20/11 A3005 RMK A01 T01970107  RH  056%=      5-min Rain = 0
KNH1 221712Z 07008KT 20/11 A3005 RMK A01 T01960106  RH  056%=      5-min Rain = 0
KNH1 221713Z 06009KT 20/11 A3005 RMK A01 T01950108  RH  057%=      5-min Rain = 0
KNH1 221714Z 07009KT 20/11 A3005 RMK A01 T01950110  RH  058%=      5-min Rain = 0
KNH1 221715Z 06007KT 20/11 A3005 RMK A01 T01950112  RH  059%=      5-min Rain = 0
KNH1 221716Z 06010KT 20/11 A3004 RMK A01 T01960112  RH  059%=      5-min Rain = 0
KNH1 221717Z 08008KT 20/11 A3004 RMK A01 T01960114  RH  059%=      5-min Rain = 0
KNH1 221718Z 07009KT 20/11 A3004 RMK A01 T01970111  RH  058%=      5-min Rain = 0
KNH1 221719Z 08010KT 20/11 A3004 RMK A01 T01950111  RH  058%=      5-min Rain = 0
KNH1 221720Z 05007KT 20/11 A3004 RMK A01 T01950113  RH  059%=      5-min Rain = 0
KNH1 221721Z 05008KT 20/12 A3004 RMK A01 T01970115  RH  059%=      5-min Rain = 0
KNH1 221722Z 05011KT 20/11 A3004 RMK A01 T01980111  RH  057%=      5-min Rain = 0
KNH1 221723Z 05007KT 20/11 A3004 RMK A01 T01970111  RH  057%=      5-min Rain = 0
KNH1 221724Z 06009KT 20/12 A3005 RMK A01 T01980115  RH  059%=      5-min Rain = 0
KNH1 221725Z 08010KT 20/11 A3005 RMK A01 T01990112  RH  057%=      5-min Rain = 0
KNH1 221726Z 07009KT 20/11 A3005 RMK A01 T01980112  RH  057%=      5-min Rain = 0
KNH1 221727Z 07010KT 20/11 A3005 RMK A01 T01980114  RH  058%=      5-min Rain = 0
KNH1 221728Z 08009KT 20/11 A3005 RMK A01 T01980114  RH  059%=      5-min Rain = 0
KNH1 221729Z 07011KT 20/11 A3005 RMK A01 T01970114  RH  059%=      5-min Rain = 0
KNH1 221730Z 07010KT 20/12 A3005 RMK A01 T01970115  RH  059%=      5-min Rain = 0
KNH1 221731Z 08008KT 20/12 A3005 RMK A01 T01970115  RH  059%=      5-min Rain = 0
KNH1 221732Z 07008KT 20/11 A3005 RMK A01 T01980113  RH  058%=      5-min Rain = 0
KNH1 221733Z 07009KT 20/12 A3005 RMK A01 T01970115  RH  059%=      5-min Rain = 0
KNH1 221734Z 08007G13KT 20/12 A3005 RMK A01 T01990116  RH  059%=      5-min Rain = 0
KNH1 221735Z 08010KT 20/12 A3005 RMK A01 T02000117  RH  058%=      5-min Rain = 0
KNH1 221736Z 08008KT 20/12 A3005 RMK A01 T02000117  RH  059%=      5-min Rain = 0
KNH1 221737Z 08009KT 20/12 A3005 RMK A01 T02000117  RH  059%=      5-min Rain = 0
KNH1 221738Z 07006KT 20/12 A3005 RMK A01 T02000116  RH  058%=      5-min Rain = 0
KNH1 221739Z 08011KT 20/12 A3005 RMK A01 T02000115  RH  058%=      5-min Rain = 0
KNH1 221740Z 08009KT 20/11 A3005 RMK A01 T02000113  RH  057%=      5-min Rain = 0
KNH1 221741Z 07008KT 20/11 A3005 RMK A01 T01990114  RH  058%=      5-min Rain = 0
KNH1 221742Z 07006KT 20/12 A3005 RMK A01 T02010116  RH  058%=      5-min Rain = 0
KNH1 221743Z 05009KT 20/12 A3005 RMK A01 T02020116  RH  058%=      5-min Rain = 0
KNH1 221744Z 07009KT 20/12 A3005 RMK A01 T02030117  RH  058%=      5-min Rain = 0
KNH1 221745Z 08009KT 20/12 A3005 RMK A01 T02040116  RH  057%=      5-min Rain = 0
KNH1 221746Z 08009KT 20/12 A3005 RMK A01 T02040116  RH  057%=      5-min Rain = 0
KNH1 221747Z 07009KT 20/12 A3005 RMK A01 T02040118  RH  058%=      5-min Rain = 0
KNH1 221748Z 07012KT 21/12 A3005 RMK A01 T02060119  RH  057%=      5-min Rain = 0
KNH1 221749Z 08011KT 21/12 A3005 RMK A01 T02060118  RH  057%=      5-min Rain = 0
KNH1 221750Z 07009KT 20/12 A3005 RMK A01 T02040117  RH  057%=      5-min Rain = 0
KNH1 221751Z 08008KT 20/12 A3005 RMK A01 T02040118  RH  058%=      5-min Rain = 0
KNH1 221752Z 07008KT 20/12 A3005 RMK A01 T02030118  RH  058%=      5-min Rain = 0
KNH1 221753Z 08011KT 20/12 A3005 RMK A01 T02020117  RH  058%=      5-min Rain = 0
KNH1 221754Z 08008KT 20/12 A3005 RMK A01 T02020117  RH  058%=      5-min Rain = 0
KNH1 221755Z 07008KT 20/12 A3004 RMK A01 T02020115  RH  057%=      5-min Rain = 0
KNH1 221756Z 06010KT 20/12 A3004 RMK A01 T02020117  RH  058%=      5-min Rain = 0
KNH1 221757Z 05008KT 20/12 A3004 RMK A01 T02030116  RH  057%=      5-min Rain = 0
KNH1 221758Z 06009KT 20/12 A3004 RMK A01 T02030117  RH  057%=      5-min Rain = 0
KNH1 221759Z 08008KT 20/12 A3004 RMK A01 T02040119  RH  058%=      5-min Rain = 0
KNH1 221800Z 08008KT 21/12 A3004 RMK A01 T02060121  RH  058%=      5-min Rain = 0
KNH1 221801Z 08010KT 21/12 A3004 RMK A01 T02070121  RH  058%=      5-min Rain = 0
KNH1 221802Z 08009KT 21/12 A3004 RMK A01 T02070121  RH  058%=      5-min Rain = 0
KNH1 221803Z 09009KT 21/12 A3004 RMK A01 T02070121  RH  058%=      5-min Rain = 0
KNH1 221804Z 09007KT 21/12 A3004 RMK A01 T02050122  RH  059%=      5-min Rain = 0
KNH1 221805Z 07007KT 20/12 A3004 RMK A01 T02040122  RH  059%=      5-min Rain = 0
KNH1 221806Z 07009KT 21/12 A3004 RMK A01 T02050122  RH  059%=      5-min Rain = 0
KNH1 221807Z 07008KT 21/12 A3004 RMK A01 T02050119  RH  058%=      5-min Rain = 0
KNH1 221808Z 07010G15KT 21/12 A3004 RMK A01 T02050120  RH  058%=      5-min Rain = 0
KNH1 221809Z 06011KT 21/12 A3003 RMK A01 T02050117  RH  057%=      5-min Rain = 0
KNH1 221810Z 06011KT 21/12 A3003 RMK A01 T02050118  RH  057%=      5-min Rain = 0
KNH1 221811Z 06008KT 20/12 A3003 RMK A01 T02040117  RH  057%=      5-min Rain = 0
KNH1 221812Z 06008KT 20/12 A3003 RMK A01 T02030118  RH  058%=      5-min Rain = 0
KNH1 221813Z 05012KT 20/12 A3003 RMK A01 T02030118  RH  058%=      5-min Rain = 0
KNH1 221814Z 07009KT 20/12 A3003 RMK A01 T02030118  RH  058%=      5-min Rain = 0
KNH1 221815Z 08010KT 20/12 A3003 RMK A01 T02040117  RH  057%=      5-min Rain = 0
KNH1 221816Z 07010KT 20/12 A3003 RMK A01 T02040118  RH  058%=      5-min Rain = 0
KNH1 221817Z 06010KT 20/12 A3003 RMK A01 T02040118  RH  058%=      5-min Rain = 0
KNH1 221818Z 06010KT 20/12 A3003 RMK A01 T02040117  RH  057%=      5-min Rain = 0
KNH1 221819Z 06011KT 20/12 A3003 RMK A01 T02040117  RH  057%=      5-min Rain = 0
KNH1 221820Z 06011KT 20/12 A3003 RMK A01 T02040116  RH  057%=      5-min Rain = 0
KNH1 221821Z 06007KT 20/12 A3003 RMK A01 T02040117  RH  057%=      5-min Rain = 0
KNH1 221822Z 08007KT 21/12 A3004 RMK A01 T02050121  RH  058%=      5-min Rain = 0
KNH1 221823Z 08011KT 21/12 A3004 RMK A01 T02070119  RH  057%=      5-min Rain = 0
KNH1 221824Z 06010KT 21/12 A3004 RMK A01 T02080118  RH  056%=      5-min Rain = 0
KNH1 221825Z 07008KT 21/12 A3004 RMK A01 T02080117  RH  056%=      5-min Rain = 0
KNH1 221826Z 04008KT 21/12 A3003 RMK A01 T02070118  RH  057%=      5-min Rain = 0
KNH1 221827Z 04009KT 21/12 A3003 RMK A01 T02060117  RH  057%=      5-min Rain = 0
KNH1 221828Z 05010KT 21/12 A3003 RMK A01 T02060117  RH  057%=      5-min Rain = 0
KNH1 221829Z 07009KT 21/12 A3003 RMK A01 T02060118  RH  057%=      5-min Rain = 0
KNH1 221830Z 07010KT 21/12 A3003 RMK A01 T02070119  RH  057%=      5-min Rain = 0
KNH1 221831Z 05009KT 21/12 A3003 RMK A01 T02070118  RH  056%=      5-min Rain = 0
KNH1 221832Z 07008KT 21/12 A3003 RMK A01 T02080120  RH  057%=      5-min Rain = 0
KNH1 221833Z 07011KT 21/12 A3003 RMK A01 T02080117  RH  056%=      5-min Rain = 0
KNH1 221834Z 07008KT 21/12 A3003 RMK A01 T02060116  RH  056%=      5-min Rain = 0
KNH1 221835Z 09009KT 21/12 A3004 RMK A01 T02050118  RH  057%=      5-min Rain = 0
KNH1 221836Z 09008KT 21/12 A3004 RMK A01 T02060116  RH  056%=      5-min Rain = 0
KNH1 221837Z 09009KT 21/12 A3004 RMK A01 T02060117  RH  056%=      5-min Rain = 0
KNH1 221838Z 09008KT 21/12 A3004 RMK A01 T02060116  RH  056%=      5-min Rain = 0
KNH1 221839Z 09011KT 21/12 A3004 RMK A01 T02070119  RH  057%=      5-min Rain = 0
KNH1 221840Z 09010KT 21/12 A3004 RMK A01 T02080117  RH  056%=      5-min Rain = 0
KNH1 221841Z 09008KT 21/12 A3004 RMK A01 T02070119  RH  057%=      5-min Rain = 0
KNH1 221842Z 09010KT 21/12 A3004 RMK A01 T02080120  RH  057%=      5-min Rain = 0
KNH1 221843Z 09007KT 21/12 A3004 RMK A01 T02080120  RH  057%=      5-min Rain = 0
KNH1 221844Z 10008KT 21/12 A3004 RMK A01 T02090120  RH  057%=      5-min Rain = 0
KNH1 221845Z 10008G13KT 21/12 A3004 RMK A01 T02090119  RH  057%=      5-min Rain = 0
KNH1 221846Z 09008KT 21/12 A3005 RMK A01 T02090119  RH  056%=      5-min Rain = 0
KNH1 221847Z 09007KT 21/12 A3005 RMK A01 T02090119  RH  056%=      5-min Rain = 0
KNH1 221848Z 08008KT 21/12 A3005 RMK A01 T02080119  RH  057%=      5-min Rain = 0
KNH1 221849Z 06008KT 21/12 A3004 RMK A01 T02080117  RH  056%=      5-min Rain = 0
KNH1 221850Z 06007KT 21/12 A3004 RMK A01 T02060119  RH  057%=      5-min Rain = 0
KNH1 221851Z 05008KT 21/12 A3004 RMK A01 T02060117  RH  057%=      5-min Rain = 0
KNH1 221852Z 05009KT 21/12 A3004 RMK A01 T02050117  RH  057%=      5-min Rain = 0
KNH1 221853Z 07008KT 20/12 A3004 RMK A01 T02040117  RH  057%=      5-min Rain = 0
KNH1 221854Z 08008KT 21/12 A3004 RMK A01 T02050119  RH  058%=      5-min Rain = 0
KNH1 221855Z 09009KT 21/12 A3004 RMK A01 T02050118  RH  058%=      5-min Rain = 0
KNH1 221856Z 05008KT 21/12 A3004 RMK A01 T02060120  RH  058%=      5-min Rain = 0
KNH1 221857Z 06006KT 21/12 A3004 RMK A01 T02060119  RH  057%=      5-min Rain = 0
KNH1 221858Z 08009KT 21/12 A3004 RMK A01 T02060119  RH  057%=      5-min Rain = 0
KNH1 221859Z 08008KT 21/12 A3005 RMK A01 T02050121  RH  058%=      5-min Rain = 0
KNH1 221900Z 08010KT 21/12 A3005 RMK A01 T02060118  RH  057%=      5-min Rain = 0
KNH1 221901Z 06008KT 20/12 A3005 RMK A01 T02040117  RH  057%=      5-min Rain = 0
KNH1 221902Z 07006KT 20/12 A3005 RMK A01 T02040117  RH  058%=      5-min Rain = 0
KNH1 221903Z 09008KT 20/12 A3005 RMK A01 T02030118  RH  058%=      5-min Rain = 0
KNH1 221904Z 08007KT 20/12 A3005 RMK A01 T02030118  RH  058%=      5-min Rain = 0
KNH1 221905Z 07008KT 20/12 A3005 RMK A01 T02030120  RH  059%=      5-min Rain = 0
KNH1 221906Z 08008KT 20/12 A3005 RMK A01 T02030119  RH  058%=      5-min Rain = 0
KNH1 221907Z 07009KT 20/12 A3005 RMK A01 T02040118  RH  058%=      5-min Rain = 0
KNH1 221908Z 07008KT 20/12 A3005 RMK A01 T02030117  RH  058%=      5-min Rain = 0
KNH1 221909Z 07007KT 20/12 A3005 RMK A01 T02020118  RH  059%=      5-min Rain = 0
KNH1 221910Z 07008KT 20/12 A3005 RMK A01 T02010118  RH  059%=      5-min Rain = 0
KNH1 221911Z 07009KT 20/12 A3005 RMK A01 T02010118  RH  059%=      5-min Rain = 0
KNH1 221912Z 07008KT 20/12 A3005 RMK A01 T02020118  RH  059%=      5-min Rain = 0
KNH1 221913Z 08006KT 20/12 A3005 RMK A01 T02020118  RH  059%=      5-min Rain = 0
KNH1 221914Z 09009KT 20/12 A3005 RMK A01 T02020119  RH  059%=      5-min Rain = 0
KNH1 221915Z 07007KT 20/12 A3005 RMK A01 T02030119  RH  059%=      5-min Rain = 0
KNH1 221916Z 08009KT 20/12 A3005 RMK A01 T02040121  RH  059%=      5-min Rain = 0
KNH1 221917Z 08009KT 21/12 A3005 RMK A01 T02060119  RH  058%=      5-min Rain = 0
KNH1 221918Z 08007KT 21/12 A3005 RMK A01 T02060117  RH  057%=      5-min Rain = 0
KNH1 221919Z 07009KT 21/12 A3005 RMK A01 T02050118  RH  057%=      5-min Rain = 0
KNH1 221920Z 06008KT 20/12 A3005 RMK A01 T02040118  RH  058%=      5-min Rain = 0
KNH1 221921Z 07008KT 20/12 A3005 RMK A01 T02040118  RH  058%=      5-min Rain = 0
KNH1 221922Z 07007KT 20/12 A3005 RMK A01 T02040117  RH  057%=      5-min Rain = 0
KNH1 221923Z 07005KT 20/12 A3005 RMK A01 T02030118  RH  058%=      5-min Rain = 0
KNH1 221924Z 07008KT 20/12 A3005 RMK A01 T02040119  RH  058%=      5-min Rain = 0
KNH1 221925Z 06010KT 21/12 A3005 RMK A01 T02050120  RH  058%=      5-min Rain = 0
KNH1 221926Z 07009KT 21/12 A3005 RMK A01 T02050119  RH  058%=      5-min Rain = 0
KNH1 221927Z 09009KT 21/12 A3005 RMK A01 T02050120  RH  058%=      5-min Rain = 0
KNH1 221928Z 10005KT 21/12 A3006 RMK A01 T02050120  RH  058%=      5-min Rain = 0
KNH1 221929Z 10004KT 21/12 A3006 RMK A01 T02050120  RH  058%=      5-min Rain = 0
KNH1 221930Z 09005KT 21/12 A3006 RMK A01 T02050120  RH  058%=      5-min Rain = 0
KNH1 221931Z 07006KT 21/12 A3006 RMK A01 T02050119  RH  058%=      5-min Rain = 0
KNH1 221932Z 06010KT 20/12 A3006 RMK A01 T02040118  RH  058%=      5-min Rain = 0
KNH1 221933Z 06009KT 20/12 A3005 RMK A01 T02030118  RH  058%=      5-min Rain = 0
KNH1 221934Z 07010KT 20/12 A3005 RMK A01 T02030120  RH  059%=      5-min Rain = 0
KNH1 221935Z 06008KT 20/12 A3004 RMK A01 T02040120  RH  059%=      5-min Rain = 0
KNH1 221936Z 05009KT 21/12 A3004 RMK A01 T02050120  RH  058%=      5-min Rain = 0
KNH1 221937Z 05010KT 21/12 A3004 RMK A01 T02060118  RH  057%=      5-min Rain = 0
KNH1 221938Z 06007KT 21/12 A3005 RMK A01 T02060119  RH  057%=      5-min Rain = 0
KNH1 221939Z 09006KT 21/12 A3005 RMK A01 T02070124  RH  059%=      5-min Rain = 0
KNH1 221940Z 10006KT 21/12 A3006 RMK A01 T02080124  RH  059%=      5-min Rain = 0
KNH1 221941Z 10006KT 21/12 A3006 RMK A01 T02080122  RH  058%=      5-min Rain = 0
KNH1 221942Z 10007KT 21/12 A3006 RMK A01 T02070124  RH  059%=      5-min Rain = 0
KNH1 221943Z 09006KT 21/12 A3006 RMK A01 T02060122  RH  058%=      5-min Rain = 0
KNH1 221944Z 09006KT 21/12 A3005 RMK A01 T02050122  RH  059%=      5-min Rain = 0
KNH1 221945Z 09006KT 20/12 A3006 RMK A01 T02040123  RH  060%=      5-min Rain = 0
KNH1 221946Z 10006KT 20/12 A3006 RMK A01 T02030123  RH  060%=      5-min Rain = 0
KNH1 221947Z 10007KT 20/12 A3006 RMK A01 T02030123  RH  060%=      5-min Rain = 0
KNH1 221948Z 09007KT 20/12 A3006 RMK A01 T02030119  RH  059%=      5-min Rain = 0
KNH1 221949Z 08007KT 20/12 A3006 RMK A01 T02010119  RH  059%=      5-min Rain = 0
KNH1 221950Z 08006KT 20/12 A3006 RMK A01 T02010122  RH  060%=      5-min Rain = 0
KNH1 221951Z 08007KT 20/12 A3006 RMK A01 T02010122  RH  060%=      5-min Rain = 0
KNH1 221952Z 08008KT 20/12 A3005 RMK A01 T02000122  RH  061%=      5-min Rain = 0
KNH1 221953Z 09008KT 20/12 A3005 RMK A01 T01990122  RH  061%=      5-min Rain = 0
KNH1 221954Z 10007KT 20/12 A3005 RMK A01 T01990124  RH  062%=      5-min Rain = 0
KNH1 221955Z 10005KT 20/13 A3005 RMK A01 T02000125  RH  062%=      5-min Rain = 0
KNH1 221956Z 10006KT 20/13 A3005 RMK A01 T02000125  RH  062%=      5-min Rain = 0
KNH1 221957Z 09008KT 20/12 A3005 RMK A01 T02000124  RH  062%=      5-min Rain = 0
KNH1 221958Z 09010KT 20/12 A3005 RMK A01 T02010124  RH  061%=      5-min Rain = 0
KNH1 221959Z 08010KT 20/12 A3005 RMK A01 T02000124  RH  061%=      5-min Rain = 0
KNH1 222000Z 08010KT 20/12 A3004 RMK A01 T02000124  RH  062%=      5-min Rain = 0
KNH1 222001Z 08011G16KT 20/12 A3004 RMK A01 T02000124  RH  062%=      5-min Rain = 0
KNH1 222002Z 08012KT 20/12 A3004 RMK A01 T02000124  RH  062%=      5-min Rain = 0
KNH1 222003Z 08009KT 20/13 A3004 RMK A01 T02000125  RH  062%=      5-min Rain = 0
KNH1 222004Z 09010KT 20/12 A3004 RMK A01 T02000124  RH  061%=      5-min Rain = 0
KNH1 222005Z 08009KT 20/13 A3005 RMK A01 T02000125  RH  062%=      5-min Rain = 0
KNH1 222006Z 09011KT 20/13 A3005 RMK A01 T02010125  RH  061%=      5-min Rain = 0
KNH1 222007Z 09009KT 20/12 A3005 RMK A01 T02010124  RH  061%=      5-min Rain = 0
KNH1 222008Z 10009KT 20/13 A3005 RMK A01 T02010125  RH  062%=      5-min Rain = 0
KNH1 222009Z 10010KT 20/13 A3005 RMK A01 T02010125  RH  061%=      5-min Rain = 0
KNH1 222010Z 09010KT 20/12 A3005 RMK A01 T02020124  RH  061%=      5-min Rain = 0
KNH1 222011Z 10009KT 20/13 A3005 RMK A01 T02010125  RH  061%=      5-min Rain = 0
KNH1 222012Z 10009KT 20/13 A3005 RMK A01 T02010125  RH  061%=      5-min Rain = 0
KNH1 222013Z 09009KT 20/13 A3005 RMK A01 T02010125  RH  062%=      5-min Rain = 0
KNH1 222014Z 10009KT 20/12 A3005 RMK A01 T02010124  RH  061%=      5-min Rain = 0
KNH1 222015Z 08010KT 20/12 A3005 RMK A01 T02000124  RH  061%=      5-min Rain = 0
KNH1 222016Z 08009KT 20/12 A3005 RMK A01 T01990122  RH  061%=      5-min Rain = 0
KNH1 222017Z 08008KT 20/12 A3005 RMK A01 T01990123  RH  062%=      5-min Rain = 0
KNH1 222018Z 08010KT 20/12 A3005 RMK A01 T01990124  RH  062%=      5-min Rain = 0
KNH1 222019Z 08008KT 20/12 A3005 RMK A01 T01990124  RH  062%=      5-min Rain = 0
KNH1 222020Z 08009KT 20/12 A3005 RMK A01 T01990124  RH  062%=      5-min Rain = 0
KNH1 222021Z 08009KT 20/12 A3005 RMK A01 T01980122  RH  061%=      5-min Rain = 0
KNH1 222022Z 08008KT 20/12 A3005 RMK A01 T01970122  RH  062%=      5-min Rain = 0
KNH1 222023Z 07010KT 20/12 A3005 RMK A01 T01960123  RH  062%=      5-min Rain = 0
KNH1 222024Z 07008KT 20/12 A3005 RMK A01 T01960124  RH  063%=      5-min Rain = 0
KNH1 222025Z 07007KT 20/12 A3005 RMK A01 T01960123  RH  063%=      5-min Rain = 0
KNH1 222026Z 07009KT 20/12 A3005 RMK A01 T01960123  RH  063%=      5-min Rain = 0
KNH1 222027Z 08010KT 20/12 A3005 RMK A01 T01950122  RH  062%=      5-min Rain = 0
KNH1 222028Z 08008KT 20/12 A3005 RMK A01 T01950122  RH  063%=      5-min Rain = 0
KNH1 222029Z 06007KT 19/12 A3005 RMK A01 T01940121  RH  063%=      5-min Rain = 0
KNH1 222030Z 05007KT 19/12 A3005 RMK A01 T01940122  RH  063%=      5-min Rain = 0
KNH1 222031Z 06006KT 19/12 A3005 RMK A01 T01940122  RH  063%=      5-min Rain = 0
KNH1 222032Z 06007KT 19/12 A3005 RMK A01 T01940123  RH  063%=      5-min Rain = 0
KNH1 222033Z 06007KT 19/12 A3005 RMK A01 T01940121  RH  063%=      5-min Rain = 0
KNH1 222034Z 06008KT 19/12 A3005 RMK A01 T01940121  RH  063%=      5-min Rain = 0
KNH1 222035Z 06007KT 19/12 A3004 RMK A01 T01930122  RH  063%=      5-min Rain = 0
KNH1 222036Z 06010KT 19/12 A3004 RMK A01 T01930121  RH  063%=      5-min Rain = 0
KNH1 222037Z 06009KT 19/12 A3004 RMK A01 T01940121  RH  063%=      5-min Rain = 0
KNH1 222038Z 06008KT 19/12 A3004 RMK A01 T01940120  RH  062%=      5-min Rain = 0
KNH1 222039Z 06008KT 19/12 A3004 RMK A01 T01940120  RH  062%=      5-min Rain = 0
KNH1 222040Z 06007KT 19/12 A3004 RMK A01 T01940120  RH  062%=      5-min Rain = 0
KNH1 222041Z 06008KT 19/12 A3004 RMK A01 T01940121  RH  063%=      5-min Rain = 0
KNH1 222042Z 07009KT 19/12 A3004 RMK A01 T01940121  RH  063%=      5-min Rain = 0
KNH1 222043Z 06009KT 19/12 A3004 RMK A01 T01940120  RH  062%=      5-min Rain = 0
KNH1 222044Z 06008KT 19/12 A3003 RMK A01 T01940121  RH  063%=      5-min Rain = 0
KNH1 222045Z 06008KT 19/12 A3003 RMK A01 T01930121  RH  063%=      5-min Rain = 0
KNH1 222046Z 06008KT 19/12 A3003 RMK A01 T01930121  RH  063%=      5-min Rain = 0
KNH1 222047Z 06009KT 19/12 A3003 RMK A01 T01940121  RH  063%=      5-min Rain = 0
KNH1 222048Z 06009KT 19/12 A3003 RMK A01 T01930121  RH  063%=      5-min Rain = 0
KNH1 222049Z 07009KT 19/12 A3003 RMK A01 T01940121  RH  063%=      5-min Rain = 0
KNH1 222050Z 06008KT 19/12 A3003 RMK A01 T01940121  RH  063%=      5-min Rain = 0
KNH1 222051Z 05009KT 19/12 A3003 RMK A01 T01940120  RH  062%=      5-min Rain = 0
KNH1 222052Z 07009KT 19/12 A3003 RMK A01 T01940119  RH  062%=      5-min Rain = 0
KNH1 222053Z 07009G15KT 19/12 A3003 RMK A01 T01940120  RH  062%=      5-min Rain = 0
KNH1 222054Z 07010KT 19/12 A3004 RMK A01 T01940119  RH  062%=      5-min Rain = 0
KNH1 222055Z 07010KT 20/12 A3004 RMK A01 T01950119  RH  062%=      5-min Rain = 0
KNH1 222056Z 07009KT 19/12 A3004 RMK A01 T01940118  RH  061%=      5-min Rain = 0
KNH1 222057Z 06008KT 19/12 A3005 RMK A01 T01940118  RH  062%=      5-min Rain = 0
KNH1 222058Z 08007KT 19/12 A3005 RMK A01 T01940119  RH  062%=      5-min Rain = 0
KNH1 222059Z 07008KT 19/12 A3005 RMK A01 T01940119  RH  062%=      5-min Rain = 0
KNH1 222100Z 08007KT 19/12 A3005 RMK A01 T01940118  RH  062%=      5-min Rain = 0
KNH1 222101Z 07009KT 19/12 A3005 RMK A01 T01940118  RH  061%=      5-min Rain = 0
KNH1 222102Z 06008KT 19/12 A3005 RMK A01 T01940117  RH  061%=      5-min Rain = 0
KNH1 222103Z 05008KT 19/12 A3005 RMK A01 T01940116  RH  060%=      5-min Rain = 0
KNH1 222104Z 05009KT 20/12 A3005 RMK A01 T01950116  RH  060%=      5-min Rain = 0
KNH1 222105Z 05008KT 20/12 A3004 RMK A01 T01950116  RH  060%=      5-min Rain = 0
KNH1 222106Z 05008KT 20/12 A3004 RMK A01 T01950116  RH  060%=      5-min Rain = 0
KNH1 222107Z 04011KT 20/12 A3004 RMK A01 T01950116  RH  060%=      5-min Rain = 0
KNH1 222108Z 04011KT 20/12 A3004 RMK A01 T01960116  RH  060%=      5-min Rain = 0
KNH1 222109Z 04011KT 20/12 A3004 RMK A01 T01960116  RH  060%=      5-min Rain = 0
KNH1 222110Z 04011KT 20/12 A3003 RMK A01 T01960117  RH  060%=      5-min Rain = 0
KNH1 222111Z 04010KT 20/12 A3003 RMK A01 T01960116  RH  060%=      5-min Rain = 0
KNH1 222112Z 05010KT 20/12 A3003 RMK A01 T01960116  RH  060%=      5-min Rain = 0
KNH1 222113Z 06011KT 20/12 A3003 RMK A01 T01960116  RH  060%=      5-min Rain = 0
KNH1 222114Z 06012KT 20/12 A3003 RMK A01 T01960116  RH  060%=      5-min Rain = 0
KNH1 222115Z 07012KT 20/12 A3003 RMK A01 T01950117  RH  061%=      5-min Rain = 0
KNH1 222116Z 06009KT 20/12 A3003 RMK A01 T01950119  RH  061%=      5-min Rain = 0
KNH1 222117Z 06010KT 20/12 A3003 RMK A01 T01950119  RH  062%=      5-min Rain = 0
KNH1 222118Z 06008KT 20/12 A3003 RMK A01 T01950121  RH  062%=      5-min Rain = 0
KNH1 222119Z 05007KT 20/12 A3004 RMK A01 T01950120  RH  062%=      5-min Rain = 0
KNH1 222120Z 06007KT 20/12 A3004 RMK A01 T01950119  RH  062%=      5-min Rain = 0
KNH1 222121Z 06008KT 20/12 A3005 RMK A01 T01950120  RH  062%=      5-min Rain = 0
KNH1 222122Z 06009KT 19/12 A3005 RMK A01 T01940117  RH  061%=      5-min Rain = 0
KNH1 222123Z 06010KT 19/12 A3005 RMK A01 T01930116  RH  061%=      5-min Rain = 0
KNH1 222124Z 06007KT 19/12 A3005 RMK A01 T01930117  RH  061%=      5-min Rain = 0
KNH1 222125Z 07008KT 19/12 A3005 RMK A01 T01920118  RH  062%=      5-min Rain = 0
KNH1 222126Z 06008KT 19/12 A3005 RMK A01 T01920118  RH  062%=      5-min Rain = 0
KNH1 222127Z 06007KT 19/12 A3005 RMK A01 T01930119  RH  062%=      5-min Rain = 0
KNH1 222128Z 07010KT 19/12 A3005 RMK A01 T01920115  RH  061%=      5-min Rain = 0
KNH1 222129Z 07009KT 19/12 A3005 RMK A01 T01920115  RH  061%=      5-min Rain = 0
KNH1 222130Z 06006KT 19/12 A3005 RMK A01 T01920116  RH  061%=      5-min Rain = 0
KNH1 222131Z 06009KT 19/12 A3005 RMK A01 T01920116  RH  061%=      5-min Rain = 0
KNH1 222132Z 06007KT 19/12 A3005 RMK A01 T01920115  RH  061%=      5-min Rain = 0
KNH1 222133Z 06007KT 19/12 A3005 RMK A01 T01920116  RH  061%=      5-min Rain = 0
KNH1 222134Z 06006KT 19/12 A3005 RMK A01 T01920117  RH  062%=      5-min Rain = 0
KNH1 222135Z 07008KT 19/12 A3005 RMK A01 T01920117  RH  062%=      5-min Rain = 0
KNH1 222136Z 07009KT 19/12 A3005 RMK A01 T01920117  RH  062%=      5-min Rain = 0
KNH1 222137Z 07009KT 19/12 A3005 RMK A01 T01920117  RH  062%=      5-min Rain = 0
KNH1 222138Z 07010KT 19/12 A3005 RMK A01 T01920118  RH  062%=      5-min Rain = 0
KNH1 222139Z 06009KT 19/12 A3005 RMK A01 T01920117  RH  062%=      5-min Rain = 0
KNH1 222140Z 06009KT 19/12 A3005 RMK A01 T01920118  RH  062%=      5-min Rain = 0
KNH1 222141Z 06008KT 19/12 A3005 RMK A01 T01920118  RH  062%=      5-min Rain = 0
KNH1 222142Z 06008KT 19/12 A3005 RMK A01 T01920118  RH  062%=      5-min Rain = 0
KNH1 222143Z 07008KT 19/12 A3005 RMK A01 T01920117  RH  062%=      5-min Rain = 0
KNH1 222144Z 07007G12KT 19/12 A3005 RMK A01 T01920118  RH  062%=      5-min Rain = 0
KNH1 222145Z 05010KT 19/12 A3005 RMK A01 T01920116  RH  061%=      5-min Rain = 0
KNH1 222146Z 06011KT 19/12 A3005 RMK A01 T01920115  RH  061%=      5-min Rain = 0
KNH1 222147Z 06008KT 19/12 A3005 RMK A01 T01920116  RH  061%=      5-min Rain = 0
KNH1 222148Z 06008KT 19/12 A3005 RMK A01 T01920117  RH  062%=      5-min Rain = 0
KNH1 222149Z 06011KT 19/12 A3005 RMK A01 T01920116  RH  061%=      5-min Rain = 0
KNH1 222150Z 05010KT 19/12 A3005 RMK A01 T01920116  RH  061%=      5-min Rain = 0
KNH1 222151Z 06010KT 19/12 A3005 RMK A01 T01920116  RH  062%=      5-min Rain = 0
KNH1 222152Z 06010KT 19/12 A3005 RMK A01 T01910116  RH  062%=      5-min Rain = 0
KNH1 222153Z 07010KT 19/12 A3005 RMK A01 T01920116  RH  061%=      5-min Rain = 0
KNH1 222154Z 07010KT 19/12 A3005 RMK A01 T01920116  RH  061%=      5-min Rain = 0
KNH1 222155Z 06008KT 19/12 A3005 RMK A01 T01920116  RH  061%=      5-min Rain = 0
KNH1 222156Z 07009KT 19/12 A3005 RMK A01 T01910115  RH  061%=      5-min Rain = 0
KNH1 222157Z 08010KT 19/12 A3005 RMK A01 T01910116  RH  062%=      5-min Rain = 0
KNH1 222158Z 07012KT 19/12 A3005 RMK A01 T01910115  RH  061%=      5-min Rain = 0
KNH1 222159Z 07012KT 19/12 A3006 RMK A01 T01910115  RH  061%=      5-min Rain = 0
KNH1 222200Z 07010KT 19/12 A3006 RMK A01 T01910115  RH  061%=      5-min Rain = 0
KNH1 222201Z 07011KT 19/11 A3006 RMK A01 T01900114  RH  061%=      5-min Rain = 0
KNH1 222202Z 07011KT 19/12 A3006 RMK A01 T01900115  RH  062%=      5-min Rain = 0
KNH1 222203Z 08011KT 19/12 A3006 RMK A01 T01900115  RH  062%=      5-min Rain = 0
KNH1 222204Z 07011KT 19/12 A3006 RMK A01 T01900115  RH  062%=      5-min Rain = 0
KNH1 222205Z 07011KT 19/11 A3006 RMK A01 T01890114  RH  062%=      5-min Rain = 0
KNH1 222206Z 07010KT 19/11 A3006 RMK A01 T01890114  RH  062%=      5-min Rain = 0
KNH1 222207Z 06009KT 19/11 A3006 RMK A01 T01890114  RH  061%=      5-min Rain = 0
KNH1 222208Z 06009KT 19/11 A3006 RMK A01 T01890114  RH  062%=      5-min Rain = 0
KNH1 222209Z 06008KT 19/12 A3006 RMK A01 T01890115  RH  062%=      5-min Rain = 0
KNH1 222210Z 06011KT 19/11 A3006 RMK A01 T01890114  RH  062%=      5-min Rain = 0
KNH1 222211Z 07010KT 19/11 A3006 RMK A01 T01890114  RH  061%=      5-min Rain = 0
KNH1 222212Z 06011KT 19/11 A3006 RMK A01 T01890114  RH  062%=      5-min Rain = 0
KNH1 222213Z 07011KT 19/12 A3006 RMK A01 T01900115  RH  062%=      5-min Rain = 0
KNH1 222214Z 06008KT 19/12 A3006 RMK A01 T01900115  RH  062%=      5-min Rain = 0
KNH1 222215Z 06008KT 19/12 A3006 RMK A01 T01900116  RH  062%=      5-min Rain = 0
KNH1 222216Z 05008KT 19/12 A3006 RMK A01 T01900116  RH  062%=      5-min Rain = 0
KNH1 222217Z 06008KT 19/12 A3006 RMK A01 T01900116  RH  062%=      5-min Rain = 0
KNH1 222218Z 06009G14KT 19/12 A3006 RMK A01 T01900117  RH  063%=      5-min Rain = 0
KNH1 222219Z 06011KT 19/12 A3005 RMK A01 T01900117  RH  063%=      5-min Rain = 0
KNH1 222220Z 07012KT 19/12 A3005 RMK A01 T01890116  RH  063%=      5-min Rain = 0
KNH1 222221Z 07012KT 19/12 A3006 RMK A01 T01880117  RH  063%=      5-min Rain = 0
KNH1 222222Z 07011KT 19/12 A3006 RMK A01 T01880118  RH  064%=      5-min Rain = 0
KNH1 222223Z 07011KT 19/12 A3006 RMK A01 T01870119  RH  064%=      5-min Rain = 0
KNH1 222224Z 08013G18KT 19/12 A3006 RMK A01 T01870121  RH  065%=      5-min Rain = 0
KNH1 222225Z 08012KT 19/12 A3006 RMK A01 T01860121  RH  066%=      5-min Rain = 0
KNH1 222226Z 08012KT 19/12 A3006 RMK A01 T01860122  RH  066%=      5-min Rain = 0
KNH1 222227Z 07011KT 19/12 A3005 RMK A01 T01850122  RH  067%=      5-min Rain = 0
KNH1 222228Z 07012KT 19/12 A3005 RMK A01 T01850122  RH  067%=      5-min Rain = 0
KNH1 222229Z 07010KT 18/12 A3005 RMK A01 T01840122  RH  067%=      5-min Rain = 0
KNH1 222230Z 06010KT 18/12 A3005 RMK A01 T01840123  RH  068%=      5-min Rain = 0
KNH1 222231Z 05008KT 18/12 A3005 RMK A01 T01840124  RH  068%=      5-min Rain = 0
KNH1 222232Z 06009KT 18/12 A3005 RMK A01 T01840124  RH  068%=      5-min Rain = 0
KNH1 222233Z 06008KT 18/12 A3005 RMK A01 T01840124  RH  068%=      5-min Rain = 0
KNH1 222234Z 06007KT 18/13 A3005 RMK A01 T01840125  RH  069%=      5-min Rain = 0
KNH1 222235Z 05009KT 18/13 A3005 RMK A01 T01830127  RH  070%=      5-min Rain = 0
KNH1 222236Z 05008KT 18/13 A3005 RMK A01 T01830126  RH  069%=      5-min Rain = 0
KNH1 222237Z 05011KT 18/13 A3004 RMK A01 T01830127  RH  070%=      5-min Rain = 0
KNH1 222238Z 05014G20KT 18/13 A3004 RMK A01 T01820125  RH  069%=      5-min Rain = 0
KNH1 222239Z 05014KT 18/12 A3004 RMK A01 T01810123  RH  069%=      5-min Rain = 0
KNH1 222240Z 05014KT 18/12 A3004 RMK A01 T01800124  RH  070%=      5-min Rain = 0
KNH1 222241Z 05014G19KT 18/12 A3003 RMK A01 T01790124  RH  070%=      5-min Rain = 0
KNH1 222242Z 05010KT 18/13 A3003 RMK A01 T01780125  RH  071%=      5-min Rain = 0
KNH1 222243Z 04012KT 18/13 A3003 RMK A01 T01780129  RH  073%=      5-min Rain = 0
KNH1 222244Z 04014KT 18/13 A3003 RMK A01 T01770126  RH  072%=      5-min Rain = 0
KNH1 222245Z 04015G21KT 18/13 A3003 RMK A01 T01770125  RH  071%=      5-min Rain = 0
KNH1 222246Z 04015KT 18/12 A3003 RMK A01 T01770124  RH  071%=      5-min Rain = 0
KNH1 222247Z 04012G19KT 18/12 A3003 RMK A01 T01770124  RH  071%=      5-min Rain = 0
KNH1 222248Z 04012KT 18/13 A3003 RMK A01 T01770125  RH  071%=      5-min Rain = 0
KNH1 222249Z 04011KT 18/12 A3004 RMK A01 T01780124  RH  071%=      5-min Rain = 0
KNH1 222250Z 04014KT 18/12 A3004 RMK A01 T01770122  RH  070%=      5-min Rain = 0
KNH1 222251Z 04011KT 18/12 A3004 RMK A01 T01770123  RH  070%=      5-min Rain = 0
KNH1 222252Z 05011KT 18/12 A3004 RMK A01 T01770124  RH  071%=      5-min Rain = 0
KNH1 222253Z 05011KT 18/12 A3004 RMK A01 T01770124  RH  071%=      5-min Rain = 0
KNH1 222254Z 05012KT 18/12 A3004 RMK A01 T01780124  RH  070%=      5-min Rain = 0
KNH1 222255Z 05009KT 18/12 A3004 RMK A01 T01780124  RH  070%=      5-min Rain = 0
KNH1 222256Z 05009KT 18/13 A3004 RMK A01 T01790126  RH  071%=      5-min Rain = 0
KNH1 222257Z 05009KT 18/13 A3004 RMK A01 T01800125  RH  070%=      5-min Rain = 0
KNH1 222258Z 06013G19KT 18/12 A3004 RMK A01 T01800123  RH  069%=      5-min Rain = 0
KNH1 222259Z 05011KT 18/12 A3004 RMK A01 T01800122  RH  069%=      5-min Rain = 0
KNH1 222300Z 04012KT 18/12 A3004 RMK A01 T01800122  RH  069%=      5-min Rain = 0
KNH1 222301Z 04015KT 18/12 A3004 RMK A01 T01800121  RH  069%=      5-min Rain = 0
KNH1 222302Z 04015KT 18/12 A3004 RMK A01 T01790119  RH  068%=      5-min Rain = 0
KNH1 222303Z 04011G16KT 18/12 A3004 RMK A01 T01790119  RH  068%=      5-min Rain = 0
KNH1 222304Z 05010KT 18/12 A3004 RMK A01 T01790120  RH  069%=      5-min Rain = 0
KNH1 222305Z 05012KT 18/12 A3004 RMK A01 T01790121  RH  069%=      5-min Rain = 0
KNH1 222306Z 05012G17KT 18/12 A3004 RMK A01 T01790122  RH  069%=      5-min Rain = 0
KNH1 222307Z 05010G15KT 18/12 A3004 RMK A01 T01790121  RH  069%=      5-min Rain = 0
KNH1 222308Z 06011KT 18/12 A3004 RMK A01 T01790122  RH  069%=      5-min Rain = 0
KNH1 222309Z 05013G18KT 18/12 A3004 RMK A01 T01790121  RH  069%=      5-min Rain = 0
KNH1 222310Z 05015KT 18/12 A3004 RMK A01 T01790121  RH  068%=      5-min Rain = 0
KNH1 222311Z 05013KT 18/12 A3004 RMK A01 T01790120  RH  068%=      5-min Rain = 0
KNH1 222312Z 04014KT 18/12 A3003 RMK A01 T01790120  RH  068%=      5-min Rain = 0
KNH1 222313Z 04011KT 18/12 A3003 RMK A01 T01800121  RH  068%=      5-min Rain = 0
KNH1 222314Z 05014KT 18/12 A3003 RMK A01 T01800120  RH  068%=      5-min Rain = 0
KNH1 222315Z 04012KT 18/12 A3003 RMK A01 T01810120  RH  068%=      5-min Rain = 0
KNH1 222316Z 04014G21KT 18/12 A3003 RMK A01 T01810119  RH  067%=      5-min Rain = 0
KNH1 222317Z 04015KT 18/12 A3003 RMK A01 T01800118  RH  067%=      5-min Rain = 0
KNH1 222318Z 04012KT 18/12 A3003 RMK A01 T01800119  RH  067%=      5-min Rain = 0
KNH1 222319Z 03013KT 18/12 A3003 RMK A01 T01800119  RH  068%=      5-min Rain = 0
KNH1 222320Z 04015KT 18/12 A3003 RMK A01 T01800119  RH  067%=      5-min Rain = 0
KNH1 222321Z 04013KT 18/12 A3003 RMK A01 T01800119  RH  067%=      5-min Rain = 0
KNH1 222322Z 05015KT 18/12 A3003 RMK A01 T01800117  RH  067%=      5-min Rain = 0
KNH1 222323Z 05014KT 18/12 A3003 RMK A01 T01800117  RH  067%=      5-min Rain = 0
KNH1 222324Z 04014KT 18/12 A3003 RMK A01 T01800117  RH  067%=      5-min Rain = 0
KNH1 222325Z 05011G16KT 18/12 A3003 RMK A01 T01800118  RH  067%=      5-min Rain = 0
KNH1 222326Z 06013KT 18/12 A3003 RMK A01 T01800119  RH  067%=      5-min Rain = 0
KNH1 222327Z 06013KT 18/12 A3004 RMK A01 T01800118  RH  067%=      5-min Rain = 0
KNH1 222328Z 06015KT 18/12 A3004 RMK A01 T01800118  RH  067%=      5-min Rain = 0
KNH1 222329Z 05013KT 18/12 A3004 RMK A01 T01780118  RH  068%=      5-min Rain = 0
KNH1 222330Z 05015KT 18/12 A3004 RMK A01 T01780118  RH  068%=      5-min Rain = 0
KNH1 222331Z 05014G19KT 18/12 A3004 RMK A01 T01780118  RH  068%=      5-min Rain = 0
KNH1 222332Z 06012KT 18/12 A3004 RMK A01 T01780119  RH  068%=      5-min Rain = 0
KNH1 222333Z 05012KT 18/12 A3004 RMK A01 T01780119  RH  068%=      5-min Rain = 0
KNH1 222334Z 06011KT 18/12 A3004 RMK A01 T01780118  RH  068%=      5-min Rain = 0
KNH1 222335Z 06013KT 18/12 A3003 RMK A01 T01790118  RH  068%=      5-min Rain = 0
KNH1 222336Z 06012KT 18/12 A3003 RMK A01 T01790118  RH  068%=      5-min Rain = 0
KNH1 222337Z 06012KT 18/12 A3003 RMK A01 T01790118  RH  068%=      5-min Rain = 0
KNH1 222338Z 06010KT 18/12 A3003 RMK A01 T01790118  RH  067%=      5-min Rain = 0
KNH1 222339Z 05014KT 18/12 A3003 RMK A01 T01790116  RH  067%=      5-min Rain = 0
KNH1 222340Z 05014G19KT 18/12 A3003 RMK A01 T01790115  RH  066%=      5-min Rain = 0
KNH1 222341Z 06015G20KT 18/12 A3003 RMK A01 T01780115  RH  066%=      5-min Rain = 0
KNH1 222342Z 06014G19KT 18/12 A3003 RMK A01 T01770115  RH  067%=      5-min Rain = 0
KNH1 222343Z 05014G19KT 18/11 A3003 RMK A01 T01780114  RH  066%=      5-min Rain = 0
KNH1 222344Z 06013KT 18/11 A3003 RMK A01 T01780114  RH  066%=      5-min Rain = 0
KNH1 222345Z 05012G17KT 18/11 A3004 RMK A01 T01770113  RH  066%=      5-min Rain = 0
KNH1 222346Z 06014KT 18/11 A3004 RMK A01 T01770113  RH  066%=      5-min Rain = 0
KNH1 222347Z 06015G20KT 18/11 A3004 RMK A01 T01770112  RH  066%=      5-min Rain = 0
KNH1 222348Z 05013KT 18/11 A3004 RMK A01 T01760113  RH  066%=      5-min Rain = 0
KNH1 222349Z 06014KT 18/11 A3004 RMK A01 T01760113  RH  067%=      5-min Rain = 0
KNH1 222350Z 05014KT 18/11 A3004 RMK A01 T01750113  RH  067%=      5-min Rain = 0
KNH1 222351Z 05012KT 18/11 A3005 RMK A01 T01760113  RH  067%=      5-min Rain = 0
KNH1 222352Z 05014KT 18/11 A3004 RMK A01 T01760113  RH  067%=      5-min Rain = 0
KNH1 222353Z 05012KT 18/11 A3004 RMK A01 T01750113  RH  067%=      5-min Rain = 0
KNH1 222354Z 05011KT 18/11 A3005 RMK A01 T01750113  RH  067%=      5-min Rain = 0
KNH1 222355Z 06013KT 18/11 A3004 RMK A01 T01750113  RH  067%=      5-min Rain = 0
KNH1 222356Z 05012G18KT 18/11 A3005 RMK A01 T01750112  RH  066%=      5-min Rain = 0
KNH1 222357Z 06012G18KT 18/11 A3005 RMK A01 T01750112  RH  066%=      5-min Rain = 0
KNH1 222358Z 06012KT 18/11 A3005 RMK A01 T01750112  RH  067%=      5-min Rain = 0
KNH1 222359Z 06009KT 18/11 A3005 RMK A01 T01750113  RH  067%=      5-min Rain = 0
KNH1 230000Z 06010KT 18/11 A3005 RMK A01 T01750114  RH  067%=      5-min Rain = 0
KNH1 230001Z 05009KT 17/11 A3005 RMK A01 T01740114  RH  067%=      5-min Rain = 0
KNH1 230002Z 05007KT 17/11 A3005 RMK A01 T01740114  RH  068%=      5-min Rain = 0
KNH1 230003Z 05010KT 18/12 A3005 RMK A01 T01750115  RH  068%=      5-min Rain = 0
KNH1 230004Z 06009KT 17/11 A3005 RMK A01 T01740114  RH  068%=      5-min Rain = 0
KNH1 230005Z 06008KT 17/11 A3005 RMK A01 T01740114  RH  068%=      5-min Rain = 0
KNH1 230006Z 06012KT 17/11 A3005 RMK A01 T01740114  RH  068%=      5-min Rain = 0
KNH1 230007Z 06011KT 17/11 A3005 RMK A01 T01730114  RH  068%=      5-min Rain = 0
KNH1 230008Z 07012KT 17/11 A3005 RMK A01 T01730114  RH  068%=      5-min Rain = 0
KNH1 230009Z 06011KT 17/11 A3005 RMK A01 T01730114  RH  068%=      5-min Rain = 0
KNH1 230010Z 06010KT 17/11 A3005 RMK A01 T01720114  RH  069%=      5-min Rain = 0
KNH1 230011Z 06011KT 17/12 A3005 RMK A01 T01720115  RH  069%=      5-min Rain = 0
KNH1 230012Z 07012KT 17/11 A3005 RMK A01 T01720114  RH  069%=      5-min Rain = 0
KNH1 230013Z 07011KT 17/11 A3005 RMK A01 T01720114  RH  069%=      5-min Rain = 0
KNH1 230014Z 07013KT 17/11 A3005 RMK A01 T01710114  RH  069%=      5-min Rain = 0
KNH1 230015Z 07013KT 17/12 A3005 RMK A01 T01710115  RH  070%=      5-min Rain = 0
KNH1 230016Z 07012KT 17/12 A3005 RMK A01 T01700115  RH  070%=      5-min Rain = 0
KNH1 230017Z 07010KT 17/12 A3005 RMK A01 T01690116  RH  071%=      5-min Rain = 0
KNH1 230018Z 07010KT 17/12 A3005 RMK A01 T01690117  RH  072%=      5-min Rain = 0
KNH1 230019Z 07010G15KT 17/12 A3005 RMK A01 T01680117  RH  072%=      5-min Rain = 0
KNH1 230020Z 07010KT 17/12 A3005 RMK A01 T01680119  RH  073%=      5-min Rain = 0
KNH1 230021Z 07012KT 17/12 A3005 RMK A01 T01670119  RH  073%=      5-min Rain = 0
KNH1 230022Z 07012G17KT 17/12 A3005 RMK A01 T01670119  RH  074%=      5-min Rain = 0
KNH1 230023Z 06013G18KT 17/12 A3004 RMK A01 T01660120  RH  074%=      5-min Rain = 0
KNH1 230024Z 06015G20KT 17/12 A3004 RMK A01 T01650121  RH  075%=      5-min Rain = 0
KNH1 230025Z 06013KT 16/12 A3004 RMK A01 T01640121  RH  076%=      5-min Rain = 0
KNH1 230026Z 06011KT 16/12 A3004 RMK A01 T01630123  RH  077%=      5-min Rain = 0
KNH1 230027Z 06011KT 16/13 A3004 RMK A01 T01620125  RH  079%=      5-min Rain = 0
KNH1 230028Z 07012KT 16/13 A3004 RMK A01 T01610125  RH  079%=      5-min Rain = 0
KNH1 230029Z 06011KT 16/13 A3005 RMK A01 T01600126  RH  080%=      5-min Rain = 0
KNH1 230030Z 07012KT 16/13 A3005 RMK A01 T01600126  RH  080%=      5-min Rain = 0
KNH1 230031Z 06011KT 16/13 A3005 RMK A01 T01590126  RH  080%=      5-min Rain = 0
KNH1 230032Z 06011KT 16/13 A3005 RMK A01 T01600126  RH  080%=      5-min Rain = 0
KNH1 230033Z 06012KT 16/13 A3005 RMK A01 T01590125  RH  080%=      5-min Rain = 0
KNH1 230034Z 05011G16KT 16/13 A3005 RMK A01 T01600125  RH  080%=      5-min Rain = 0
KNH1 230035Z 05012KT 16/12 A3005 RMK A01 T01600124  RH  079%=      5-min Rain = 0
KNH1 230036Z 05011KT 16/13 A3005 RMK A01 T01600125  RH  080%=      5-min Rain = 0
KNH1 230037Z 05010KT 16/13 A3005 RMK A01 T01600126  RH  080%=      5-min Rain = 0
KNH1 230038Z 05011KT 16/13 A3005 RMK A01 T01600126  RH  080%=      5-min Rain = 0
KNH1 230039Z 05010KT 16/13 A3005 RMK A01 T01600125  RH  080%=      5-min Rain = 0
KNH1 230040Z 05011KT 16/13 A3005 RMK A01 T01600126  RH  080%=      5-min Rain = 0
KNH1 230041Z 06010KT 16/13 A3005 RMK A01 T01600125  RH  080%=      5-min Rain = 0
KNH1 230042Z 06011KT 16/13 A3005 RMK A01 T01600125  RH  080%=      5-min Rain = 0
KNH1 230043Z 06010KT 16/13 A3005 RMK A01 T01600126  RH  080%=      5-min Rain = 0
KNH1 230044Z 06011KT 16/13 A3005 RMK A01 T01590126  RH  081%=      5-min Rain = 0
KNH1 230045Z 06011KT 16/13 A3005 RMK A01 T01590127  RH  081%=      5-min Rain = 0.01
KNH1 230046Z 06010KT 16/13 A3005 RMK A01 T01590128  RH  082%=      5-min Rain = 0
KNH1 230047Z 06010KT 16/13 A3005 RMK A01 T01580128  RH  083%=      5-min Rain = 0
KNH1 230048Z 06010KT 16/13 A3005 RMK A01 T01570128  RH  083%=      5-min Rain = 0
KNH1 230049Z 07010KT 16/13 A3005 RMK A01 T01570128  RH  083%=      5-min Rain = 0
KNH1 230050Z 06009KT 16/13 A3006 RMK A01 T01570129  RH  084%=      5-min Rain = 0
KNH1 230051Z 06009KT 16/13 A3006 RMK A01 T01570129  RH  084%=      5-min Rain = 0.01
KNH1 230052Z 06007KT 16/13 A3006 RMK A01 T01560130  RH  085%=      5-min Rain = 0
KNH1 230053Z 06008KT 16/13 A3006 RMK A01 T01550130  RH  085%=      5-min Rain = 0.01
KNH1 230054Z 06008KT 16/13 A3006 RMK A01 T01550130  RH  085%=      5-min Rain = 0
KNH1 230055Z 06007KT 16/13 A3006 RMK A01 T01550131  RH  086%=      5-min Rain = 0
KNH1 230056Z 05010KT 15/13 A3006 RMK A01 T01540131  RH  086%=      5-min Rain = 0.01
KNH1 230057Z 05011KT 15/13 A3006 RMK A01 T01540131  RH  086%=      5-min Rain = 0
KNH1 230058Z 04012KT 15/13 A3005 RMK A01 T01540131  RH  086%=      5-min Rain = 0
KNH1 230059Z 04012KT 15/13 A3004 RMK A01 T01530132  RH  087%=      5-min Rain = 0.01
KNH1 230100Z 04012KT 15/13 A3004 RMK A01 T01530132  RH  087%=      5-min Rain = 0
KNH1 230101Z 03013KT 15/13 A3003 RMK A01 T01520132  RH  088%=      5-min Rain = 0
KNH1 230102Z 04013KT 15/13 A3003 RMK A01 T01520133  RH  088%=      5-min Rain = 0
KNH1 230103Z 04011KT 15/13 A3003 RMK A01 T01520133  RH  088%=      5-min Rain = 0.01
KNH1 230104Z 04014KT 15/13 A3003 RMK A01 T01510132  RH  088%=      5-min Rain = 0
KNH1 230105Z 04013KT 15/13 A3003 RMK A01 T01510132  RH  088%=      5-min Rain = 0
KNH1 230106Z 04013KT 15/13 A3003 RMK A01 T01510133  RH  089%=      5-min Rain = 0
KNH1 230107Z 04013KT 15/13 A3002 RMK A01 T01510134  RH  090%=      5-min Rain = 0
KNH1 230108Z 04013KT 15/13 A3002 RMK A01 T01510134  RH  090%=      5-min Rain = 0.01
KNH1 230109Z 03012KT 15/13 A3002 RMK A01 T01500133  RH  090%=      5-min Rain = 0
KNH1 230110Z 03015G20KT 15/13 A3002 RMK A01 T01500132  RH  089%=      5-min Rain = 0
KNH1 230111Z 03013KT 15/13 A3003 RMK A01 T01500132  RH  089%=      5-min Rain = 0
KNH1 230112Z 03014G20KT 15/13 A3003 RMK A01 T01490132  RH  089%=      5-min Rain = 0
KNH1 230113Z 03011KT 15/13 A3003 RMK A01 T01490131  RH  089%=      5-min Rain = 0.01
KNH1 230114Z 04012KT 15/13 A3004 RMK A01 T01490132  RH  090%=      5-min Rain = 0
KNH1 230115Z 04012KT 15/13 A3004 RMK A01 T01480131  RH  090%=      5-min Rain = 0
KNH1 230116Z 04014KT 15/13 A3004 RMK A01 T01480131  RH  089%=      5-min Rain = 0
KNH1 230117Z 05012KT 15/13 A3004 RMK A01 T01480131  RH  090%=      5-min Rain = 0.01
KNH1 230118Z 05013KT 15/13 A3005 RMK A01 T01470131  RH  090%=      5-min Rain = 0
KNH1 230119Z 05012G17KT 15/13 A3005 RMK A01 T01470131  RH  090%=      5-min Rain = 0
KNH1 230120Z 05009KT 15/13 A3005 RMK A01 T01470132  RH  091%=      5-min Rain = 0
KNH1 230121Z 05009KT 15/13 A3005 RMK A01 T01460132  RH  091%=      5-min Rain = 0
KNH1 230122Z 05011KT 15/13 A3005 RMK A01 T01460132  RH  091%=      5-min Rain = 0
KNH1 230123Z 05011KT 15/13 A3006 RMK A01 T01460132  RH  091%=      5-min Rain = 0
KNH1 230124Z 05010KT 15/13 A3005 RMK A01 T01460133  RH  092%=      5-min Rain = 0.01
KNH1 230125Z 04011KT 15/13 A3005 RMK A01 T01460133  RH  092%=      5-min Rain = 0
KNH1 230126Z 04013KT 15/13 A3005 RMK A01 T01460134  RH  092%=      5-min Rain = 0
KNH1 230127Z 04012KT 15/13 A3005 RMK A01 T01460133  RH  092%=      5-min Rain = 0.01
KNH1 230128Z 04013KT 15/13 A3005 RMK A01 T01460133  RH  092%=      5-min Rain = 0
KNH1 230129Z 05012KT 15/13 A3005 RMK A01 T01460133  RH  092%=      5-min Rain = 0
KNH1 230130Z 05012G17KT 15/13 A3005 RMK A01 T01460133  RH  092%=      5-min Rain = 0
KNH1 230131Z 05012KT 15/13 A3005 RMK A01 T01460133  RH  092%=      5-min Rain = 0
KNH1 230132Z 05010KT 15/13 A3005 RMK A01 T01460133  RH  092%=      5-min Rain = 0.01
KNH1 230133Z 04011KT 15/13 A3005 RMK A01 T01460133  RH  092%=      5-min Rain = 0
KNH1 230134Z 05013KT 15/13 A3005 RMK A01 T01460133  RH  092%=      5-min Rain = 0
KNH1 230135Z 05011KT 15/13 A3005 RMK A01 T01460133  RH  092%=      5-min Rain = 0
KNH1 230136Z 05012KT 15/13 A3005 RMK A01 T01460134  RH  092%=      5-min Rain = 0
KNH1 230137Z 05010KT 15/13 A3005 RMK A01 T01450133  RH  093%=      5-min Rain = 0.01
KNH1 230138Z 04010KT 15/13 A3005 RMK A01 T01450134  RH  093%=      5-min Rain = 0
KNH1 230139Z 05009KT 15/13 A3005 RMK A01 T01450134  RH  093%=      5-min Rain = 0
KNH1 230140Z 04008KT 15/13 A3005 RMK A01 T01450134  RH  093%=      5-min Rain = 0
KNH1 230141Z 05010KT 15/14 A3004 RMK A01 T01450135  RH  094%=      5-min Rain = 0
KNH1 230142Z 04011KT 15/14 A3005 RMK A01 T01450135  RH  094%=      5-min Rain = 0
KNH1 230143Z 04010KT 15/13 A3005 RMK A01 T01450134  RH  093%=      5-min Rain = 0
KNH1 230144Z 05010KT 15/13 A3005 RMK A01 T01450134  RH  093%=      5-min Rain = 0.01
KNH1 230145Z 05010KT 15/13 A3005 RMK A01 T01450134  RH  093%=      5-min Rain = 0
KNH1 230146Z 05010KT 15/13 A3005 RMK A01 T01450134  RH  093%=      5-min Rain = 0
KNH1 230147Z 04012KT 15/13 A3005 RMK A01 T01450134  RH  093%=      5-min Rain = 0
KNH1 230148Z 04009KT 15/13 A3005 RMK A01 T01450134  RH  093%=      5-min Rain = 0
KNH1 230149Z 04009KT 15/13 A3005 RMK A01 T01460134  RH  093%=      5-min Rain = 0
KNH1 230150Z 05008KT 15/14 A3005 RMK A01 T01460135  RH  093%=      5-min Rain = 0
KNH1 230151Z 04008KT 15/14 A3005 RMK A01 T01460135  RH  093%=      5-min Rain = 0
KNH1 230152Z 05008KT 15/14 A3005 RMK A01 T01460135  RH  093%=      5-min Rain = 0.01
KNH1 230153Z 05008KT 15/14 A3005 RMK A01 T01460135  RH  093%=      5-min Rain = 0
KNH1 230154Z 05010KT 15/14 A3005 RMK A01 T01460135  RH  093%=      5-min Rain = 0
KNH1 230155Z 04010KT 15/14 A3005 RMK A01 T01460135  RH  093%=      5-min Rain = 0
KNH1 230156Z 05011KT 15/14 A3005 RMK A01 T01460135  RH  093%=      5-min Rain = 0
KNH1 230157Z 05010KT 15/13 A3005 RMK A01 T01460134  RH  093%=      5-min Rain = 0
KNH1 230158Z 05010KT 15/14 A3005 RMK A01 T01460135  RH  093%=      5-min Rain = 0
KNH1 230159Z 04011KT 15/13 A3005 RMK A01 T01460134  RH  093%=      5-min Rain = 0
KNH1 230200Z 05008KT 15/13 A3005 RMK A01 T01460134  RH  093%=      5-min Rain = 0
KNH1 230201Z 05008KT 15/14 A3005 RMK A01 T01460135  RH  093%=      5-min Rain = 0
KNH1 230202Z 06012KT 15/14 A3004 RMK A01 T01450135  RH  093%=      5-min Rain = 0
KNH1 230203Z 06010KT 15/14 A3004 RMK A01 T01460135  RH  093%=      5-min Rain = 0
KNH1 230204Z 05012KT 15/13 A3004 RMK A01 T01450134  RH  093%=      5-min Rain = 0
KNH1 230205Z 06014KT 15/13 A3004 RMK A01 T01450134  RH  093%=      5-min Rain = 0
KNH1 230206Z 06011KT 15/13 A3004 RMK A01 T01450134  RH  093%=      5-min Rain = 0
KNH1 230207Z 06011KT 15/14 A3004 RMK A01 T01450135  RH  093%=      5-min Rain = 0
KNH1 230208Z 06010KT 15/14 A3005 RMK A01 T01460135  RH  093%=      5-min Rain = 0
KNH1 230209Z 06011KT 15/14 A3004 RMK A01 T01450135  RH  094%=      5-min Rain = 0
KNH1 230210Z 06010KT 15/14 A3004 RMK A01 T01450135  RH  094%=      5-min Rain = 0
KNH1 230211Z 05011KT 15/14 A3004 RMK A01 T01450136  RH  094%=      5-min Rain = 0
KNH1 230212Z 05011KT 15/14 A3004 RMK A01 T01450135  RH  094%=      5-min Rain = 0.01
KNH1 230213Z 05011KT 15/14 A3004 RMK A01 T01450135  RH  094%=      5-min Rain = 0
KNH1 230214Z 05010KT 15/14 A3004 RMK A01 T01450135  RH  094%=      5-min Rain = 0
KNH1 230215Z 06010KT 15/14 A3004 RMK A01 T01450136  RH  094%=      5-min Rain = 0
KNH1 230216Z 05010G16KT 15/14 A3005 RMK A01 T01450135  RH  094%=      5-min Rain = 0
KNH1 230217Z 05009KT 15/14 A3005 RMK A01 T01450135  RH  094%=      5-min Rain = 0
KNH1 230218Z 06008G13KT 15/14 A3005 RMK A01 T01450135  RH  094%=      5-min Rain = 0
KNH1 230219Z 06009KT 15/14 A3005 RMK A01 T01450135  RH  094%=      5-min Rain = 0
KNH1 230220Z 05012KT 15/14 A3005 RMK A01 T01450135  RH  094%=      5-min Rain = 0
KNH1 230221Z 06009KT 15/14 A3005 RMK A01 T01450135  RH  094%=      5-min Rain = 0
KNH1 230222Z 06010KT 15/14 A3005 RMK A01 T01450136  RH  094%=      5-min Rain = 0
KNH1 230223Z 06010KT 15/14 A3005 RMK A01 T01450135  RH  094%=      5-min Rain = 0
KNH1 230224Z 07011KT 15/14 A3005 RMK A01 T01450135  RH  094%=      5-min Rain = 0
KNH1 230225Z 06010KT 15/14 A3005 RMK A01 T01450135  RH  094%=      5-min Rain = 0
KNH1 230226Z 05011KT 15/14 A3005 RMK A01 T01460136  RH  094%=      5-min Rain = 0
KNH1 230227Z 05013KT 15/14 A3005 RMK A01 T01450135  RH  094%=      5-min Rain = 0
KNH1 230228Z 06012KT 15/14 A3005 RMK A01 T01460135  RH  093%=      5-min Rain = 0
KNH1 230229Z 05011KT 15/14 A3005 RMK A01 T01460135  RH  093%=      5-min Rain = 0
KNH1 230230Z 05013KT 15/14 A3005 RMK A01 T01460135  RH  093%=      5-min Rain = 0
KNH1 230231Z 05012KT 15/14 A3005 RMK A01 T01460135  RH  093%=      5-min Rain = 0
KNH1 230232Z 05009KT 15/14 A3005 RMK A01 T01460135  RH  093%=      5-min Rain = 0
KNH1 230233Z 05012KT 15/14 A3005 RMK A01 T01460135  RH  094%=      5-min Rain = 0
KNH1 230234Z 05010KT 15/14 A3004 RMK A01 T01460136  RH  094%=      5-min Rain = 0.01
KNH1 230235Z 04014KT 15/14 A3004 RMK A01 T01460136  RH  094%=      5-min Rain = 0
KNH1 230236Z 05009KT 15/14 A3004 RMK A01 T01460136  RH  094%=      5-min Rain = 0
KNH1 230237Z 04012KT 15/14 A3004 RMK A01 T01460136  RH  094%=      5-min Rain = 0
KNH1 230238Z 04009G14KT 15/14 A3004 RMK A01 T01450136  RH  094%=      5-min Rain = 0
KNH1 230239Z 04010KT 15/14 A3005 RMK A01 T01450136  RH  094%=      5-min Rain = 0
KNH1 230240Z 05011KT 15/14 A3005 RMK A01 T01450136  RH  094%=      5-min Rain = 0
KNH1 230241Z 05010KT 15/14 A3005 RMK A01 T01450136  RH  094%=      5-min Rain = 0
KNH1 230242Z 06008KT 15/14 A3006 RMK A01 T01460136  RH  094%=      5-min Rain = 0
KNH1 230243Z 06008KT 15/14 A3006 RMK A01 T01450136  RH  094%=      5-min Rain = 0
KNH1 230244Z 07009KT 15/14 A3006 RMK A01 T01460136  RH  094%=      5-min Rain = 0
KNH1 230245Z 07011KT 15/14 A3006 RMK A01 T01450136  RH  094%=      5-min Rain = 0
KNH1 230246Z 07009KT 15/14 A3006 RMK A01 T01450136  RH  094%=      5-min Rain = 0
KNH1 230247Z 06011KT 15/14 A3006 RMK A01 T01450136  RH  094%=      5-min Rain = 0
KNH1 230248Z 06012KT 15/14 A3005 RMK A01 T01450137  RH  095%=      5-min Rain = 0
KNH1 230249Z 06012KT 15/14 A3005 RMK A01 T01450137  RH  095%=      5-min Rain = 0
KNH1 230250Z 06012KT 15/14 A3004 RMK A01 T01450137  RH  095%=      5-min Rain = 0.01
KNH1 230251Z 06011KT 15/14 A3004 RMK A01 T01450137  RH  095%=      5-min Rain = 0
KNH1 230252Z 05011KT 15/14 A3004 RMK A01 T01450137  RH  095%=      5-min Rain = 0
KNH1 230253Z 05011G16KT 15/14 A3004 RMK A01 T01450137  RH  095%=      5-min Rain = 0
KNH1 230254Z 05013G18KT 15/14 A3004 RMK A01 T01450137  RH  095%=      5-min Rain = 0.01
KNH1 230255Z 06012KT 15/14 A3004 RMK A01 T01450137  RH  095%=      5-min Rain = 0
KNH1 230256Z 06010KT 15/14 A3004 RMK A01 T01450137  RH  095%=      5-min Rain = 0
KNH1 230257Z 06011G16KT 15/14 A3004 RMK A01 T01450137  RH  095%=      5-min Rain = 0
KNH1 230258Z 05013KT 14/14 A3004 RMK A01 T01440137  RH  095%=      5-min Rain = 0
KNH1 230259Z 05012KT 14/14 A3004 RMK A01 T01440137  RH  095%=      5-min Rain = 0.01
KNH1 230300Z 05012KT 14/14 A3004 RMK A01 T01440136  RH  095%=      5-min Rain = 0
KNH1 230301Z 05010KT 14/14 A3004 RMK A01 T01440136  RH  095%=      5-min Rain = 0
KNH1 230302Z 04009KT 14/14 A3004 RMK A01 T01440136  RH  095%=      5-min Rain = 0
KNH1 230303Z 04010KT 14/14 A3004 RMK A01 T01440137  RH  095%=      5-min Rain = 0
KNH1 230304Z 04010KT 15/14 A3004 RMK A01 T01450137  RH  095%=      5-min Rain = 0
KNH1 230305Z 04010KT 15/14 A3004 RMK A01 T01450137  RH  095%=      5-min Rain = 0
KNH1 230306Z 04008KT 15/14 A3004 RMK A01 T01450137  RH  095%=      5-min Rain = 0
KNH1 230307Z 04009KT 14/14 A3004 RMK A01 T01440137  RH  095%=      5-min Rain = 0
KNH1 230308Z 05010G15KT 15/14 A3004 RMK A01 T01450137  RH  095%=      5-min Rain = 0
KNH1 230309Z 04012KT 14/14 A3004 RMK A01 T01440136  RH  095%=      5-min Rain = 0
KNH1 230310Z 03010KT 14/14 A3004 RMK A01 T01440137  RH  095%=      5-min Rain = 0
KNH1 230311Z 05008KT 14/14 A3005 RMK A01 T01440136  RH  095%=      5-min Rain = 0
KNH1 230312Z 05009G14KT 14/14 A3005 RMK A01 T01440136  RH  095%=      5-min Rain = 0
KNH1 230313Z 05007KT 14/14 A3005 RMK A01 T01440136  RH  095%=      5-min Rain = 0
KNH1 230314Z 04008KT 14/14 A3005 RMK A01 T01440137  RH  095%=      5-min Rain = 0
KNH1 230315Z 04008KT 14/14 A3005 RMK A01 T01440137  RH  095%=      5-min Rain = 0
KNH1 230316Z 05006KT 14/14 A3005 RMK A01 T01440137  RH  095%=      5-min Rain = 0
KNH1 230317Z 04007KT 14/14 A3005 RMK A01 T01440137  RH  095%=      5-min Rain = 0
KNH1 230318Z 04007KT 14/14 A3006 RMK A01 T01440137  RH  095%=      5-min Rain = 0
KNH1 230319Z 05007KT 15/14 A3006 RMK A01 T01450137  RH  095%=      5-min Rain = 0
KNH1 230320Z 05006KT 14/14 A3006 RMK A01 T01440137  RH  095%=      5-min Rain = 0
KNH1 230321Z 06006KT 14/14 A3006 RMK A01 T01440137  RH  095%=      5-min Rain = 0
KNH1 230322Z 06006KT 14/14 A3006 RMK A01 T01440137  RH  096%=      5-min Rain = 0
KNH1 230323Z 06005KT 14/14 A3006 RMK A01 T01440138  RH  096%=      5-min Rain = 0
KNH1 230324Z 05006KT 15/14 A3006 RMK A01 T01450138  RH  096%=      5-min Rain = 0
KNH1 230325Z 06008KT 15/14 A3006 RMK A01 T01450138  RH  096%=      5-min Rain = 0
KNH1 230326Z 05007KT 15/14 A3006 RMK A01 T01450138  RH  096%=      5-min Rain = 0
KNH1 230327Z 06008KT 15/14 A3006 RMK A01 T01450138  RH  096%=      5-min Rain = 0
KNH1 230328Z 05006KT 15/14 A3006 RMK A01 T01450138  RH  096%=      5-min Rain = 0
KNH1 230329Z 05006KT 15/14 A3006 RMK A01 T01450138  RH  095%=      5-min Rain = 0
KNH1 230330Z 05010KT 15/14 A3006 RMK A01 T01450138  RH  095%=      5-min Rain = 0
KNH1 230331Z 05011KT 15/14 A3005 RMK A01 T01450138  RH  095%=      5-min Rain = 0
KNH1 230332Z 05011KT 15/14 A3005 RMK A01 T01450137  RH  095%=      5-min Rain = 0
KNH1 230333Z 04011KT 15/14 A3005 RMK A01 T01460137  RH  095%=      5-min Rain = 0
KNH1 230334Z 05010KT 15/14 A3005 RMK A01 T01460137  RH  095%=      5-min Rain = 0
KNH1 230335Z 05010KT 15/14 A3005 RMK A01 T01460137  RH  094%=      5-min Rain = 0
KNH1 230336Z 05008KT 15/14 A3006 RMK A01 T01460137  RH  094%=      5-min Rain = 0
KNH1 230337Z 05007KT 15/14 A3006 RMK A01 T01460137  RH  094%=      5-min Rain = 0
KNH1 230338Z 05009KT 15/14 A3006 RMK A01 T01460137  RH  095%=      5-min Rain = 0
KNH1 230339Z 05008KT 15/14 A3006 RMK A01 T01460137  RH  094%=      5-min Rain = 0
KNH1 230340Z 04006KT 15/14 A3006 RMK A01 T01460137  RH  095%=      5-min Rain = 0
KNH1 230341Z 04010KT 15/14 A3005 RMK A01 T01460137  RH  095%=      5-min Rain = 0
KNH1 230342Z 04011KT 15/14 A3005 RMK A01 T01460137  RH  094%=      5-min Rain = 0
KNH1 230343Z 04011KT 15/14 A3005 RMK A01 T01460137  RH  094%=      5-min Rain = 0
KNH1 230344Z 05010KT 15/14 A3005 RMK A01 T01460137  RH  094%=      5-min Rain = 0
KNH1 230345Z 04009KT 15/14 A3005 RMK A01 T01460137  RH  094%=      5-min Rain = 0
KNH1 230346Z 05008KT 15/14 A3005 RMK A01 T01450137  RH  094%=      5-min Rain = 0
KNH1 230347Z 05009KT 15/14 A3005 RMK A01 T01450137  RH  094%=      5-min Rain = 0
KNH1 230348Z 04009KT 15/14 A3005 RMK A01 T01450137  RH  095%=      5-min Rain = 0
KNH1 230349Z 04010KT 15/14 A3005 RMK A01 T01450136  RH  094%=      5-min Rain = 0
KNH1 230350Z 04010G15KT 15/14 A3005 RMK A01 T01450136  RH  094%=      5-min Rain = 0
KNH1 230351Z 04011KT 15/14 A3005 RMK A01 T01450136  RH  094%=      5-min Rain = 0
KNH1 230352Z 04009KT 15/14 A3005 RMK A01 T01450136  RH  094%=      5-min Rain = 0
KNH1 230353Z 05010KT 15/14 A3004 RMK A01 T01450136  RH  094%=      5-min Rain = 0
KNH1 230354Z 04010KT 14/14 A3005 RMK A01 T01440136  RH  095%=      5-min Rain = 0
KNH1 230355Z 05010KT 14/14 A3005 RMK A01 T01440136  RH  095%=      5-min Rain = 0
KNH1 230356Z 05011G16KT 15/14 A3004 RMK A01 T01450136  RH  095%=      5-min Rain = 0
KNH1 230357Z 05010KT 14/14 A3004 RMK A01 T01440136  RH  095%=      5-min Rain = 0
KNH1 230358Z 05008KT 14/14 A3004 RMK A01 T01440136  RH  095%=      5-min Rain = 0
KNH1 230359Z 05011KT 14/14 A3004 RMK A01 T01440136  RH  095%=      5-min Rain = 0
KNH1 230400Z 05010KT 14/14 A3004 RMK A01 T01440136  RH  095%=      5-min Rain = 0
KNH1 230401Z 05011KT 14/14 A3004 RMK A01 T01440136  RH  095%=      5-min Rain = 0
KNH1 230402Z 05013KT 14/14 A3004 RMK A01 T01440136  RH  095%=      5-min Rain = 0
KNH1 230403Z 05010KT 14/14 A3004 RMK A01 T01440136  RH  095%=      5-min Rain = 0
KNH1 230404Z 05012KT 14/14 A3004 RMK A01 T01440135  RH  095%=      5-min Rain = 0
KNH1 230405Z 05013KT 14/14 A3004 RMK A01 T01440136  RH  095%=      5-min Rain = 0
KNH1 230406Z 05013G19KT 14/14 A3004 RMK A01 T01440135  RH  094%=      5-min Rain = 0
KNH1 230407Z 06011KT 14/14 A3004 RMK A01 T01440135  RH  094%=      5-min Rain = 0
KNH1 230408Z 05011KT 14/14 A3004 RMK A01 T01440135  RH  094%=      5-min Rain = 0
KNH1 230409Z 05012KT 14/14 A3004 RMK A01 T01440135  RH  094%=      5-min Rain = 0
KNH1 230410Z 05011KT 14/14 A3004 RMK A01 T01440135  RH  094%=      5-min Rain = 0
KNH1 230411Z 05010KT 14/14 A3004 RMK A01 T01440135  RH  094%=      5-min Rain = 0
KNH1 230412Z 06012KT 14/14 A3004 RMK A01 T01440135  RH  094%=      5-min Rain = 0
KNH1 230413Z 06010KT 14/14 A3004 RMK A01 T01440135  RH  094%=      5-min Rain = 0
KNH1 230414Z 06011G16KT 14/14 A3004 RMK A01 T01440135  RH  095%=      5-min Rain = 0
KNH1 230415Z 05012KT 14/14 A3004 RMK A01 T01430135  RH  095%=      5-min Rain = 0
KNH1 230416Z 05011KT 14/14 A3004 RMK A01 T01430135  RH  094%=      5-min Rain = 0
KNH1 230417Z 06011KT 14/14 A3004 RMK A01 T01440135  RH  095%=      5-min Rain = 0
KNH1 230418Z 06011KT 14/14 A3004 RMK A01 T01440135  RH  095%=      5-min Rain = 0
KNH1 230419Z 06010G15KT 14/14 A3004 RMK A01 T01440135  RH  095%=      5-min Rain = 0
KNH1 230420Z 05013KT 14/14 A3004 RMK A01 T01430135  RH  095%=      5-min Rain = 0
KNH1 230421Z 05012KT 14/14 A3004 RMK A01 T01440135  RH  095%=      5-min Rain = 0
KNH1 230422Z 05010KT 14/14 A3005 RMK A01 T01430135  RH  095%=      5-min Rain = 0
KNH1 230423Z 05008KT 14/14 A3005 RMK A01 T01430135  RH  095%=      5-min Rain = 0
KNH1 230424Z 05011G17KT 14/14 A3005 RMK A01 T01430135  RH  095%=      5-min Rain = 0
KNH1 230425Z 05010G15KT 14/14 A3004 RMK A01 T01440136  RH  095%=      5-min Rain = 0
KNH1 230426Z 04009KT 14/14 A3005 RMK A01 T01440136  RH  095%=      5-min Rain = 0
KNH1 230427Z 05009KT 14/14 A3005 RMK A01 T01440136  RH  095%=      5-min Rain = 0
KNH1 230428Z 06011G16KT 14/14 A3004 RMK A01 T01430135  RH  095%=      5-min Rain = 0
KNH1 230429Z 05013KT 14/14 A3004 RMK A01 T01440135  RH  095%=      5-min Rain = 0
KNH1 230430Z 04009KT 14/14 A3004 RMK A01 T01430135  RH  095%=      5-min Rain = 0
KNH1 230431Z 04009KT 14/14 A3005 RMK A01 T01440135  RH  095%=      5-min Rain = 0
KNH1 230432Z 05012G18KT 14/14 A3005 RMK A01 T01440135  RH  095%=      5-min Rain = 0
KNH1 230433Z 05012KT 14/14 A3005 RMK A01 T01430135  RH  095%=      5-min Rain = 0
KNH1 230434Z 04010KT 14/14 A3005 RMK A01 T01440135  RH  094%=      5-min Rain = 0
KNH1 230435Z 05010KT 14/14 A3005 RMK A01 T01440135  RH  094%=      5-min Rain = 0
KNH1 230436Z 05010KT 14/14 A3005 RMK A01 T01440135  RH  094%=      5-min Rain = 0
KNH1 230437Z 04011KT 14/14 A3005 RMK A01 T01440135  RH  094%=      5-min Rain = 0
KNH1 230438Z 04013KT 14/14 A3005 RMK A01 T01440135  RH  094%=      5-min Rain = 0
KNH1 230439Z 05011KT 14/14 A3005 RMK A01 T01440135  RH  094%=      5-min Rain = 0
KNH1 230440Z 05012KT 14/13 A3005 RMK A01 T01440134  RH  094%=      5-min Rain = 0
KNH1 230441Z 04012KT 14/13 A3005 RMK A01 T01440134  RH  094%=      5-min Rain = 0
KNH1 230442Z 04011KT 14/14 A3005 RMK A01 T01440135  RH  094%=      5-min Rain = 0
KNH1 230443Z 05012KT 15/14 A3005 RMK A01 T01450135  RH  094%=      5-min Rain = 0
KNH1 230444Z 05011KT 14/13 A3005 RMK A01 T01440134  RH  094%=      5-min Rain = 0
KNH1 230445Z 04011KT 14/13 A3005 RMK A01 T01440134  RH  094%=      5-min Rain = 0
KNH1 230446Z 05010KT 14/14 A3006 RMK A01 T01440135  RH  094%=      5-min Rain = 0
KNH1 230447Z 04010G17KT 14/13 A3006 RMK A01 T01440134  RH  094%=      5-min Rain = 0
KNH1 230448Z 04010G15KT 15/13 A3006 RMK A01 T01450134  RH  094%=      5-min Rain = 0
KNH1 230449Z 05009KT 15/14 A3006 RMK A01 T01450135  RH  094%=      5-min Rain = 0
KNH1 230450Z 04009KT 15/14 A3006 RMK A01 T01450135  RH  094%=      5-min Rain = 0
KNH1 230451Z 04007KT 15/14 A3006 RMK A01 T01450136  RH  094%=      5-min Rain = 0
KNH1 230452Z 05008KT 15/14 A3006 RMK A01 T01450136  RH  094%=      5-min Rain = 0
KNH1 230453Z 04008KT 15/14 A3006 RMK A01 T01450136  RH  095%=      5-min Rain = 0
KNH1 230454Z 04008KT 15/14 A3006 RMK A01 T01450137  RH  095%=      5-min Rain = 0
KNH1 230455Z 03008KT 15/14 A3006 RMK A01 T01450137  RH  095%=      5-min Rain = 0
KNH1 230456Z 05007KT 15/14 A3006 RMK A01 T01450137  RH  095%=      5-min Rain = 0
KNH1 230457Z 05009KT 15/14 A3005 RMK A01 T01450137  RH  095%=      5-min Rain = 0
KNH1 230458Z 05010KT 15/14 A3005 RMK A01 T01450137  RH  095%=      5-min Rain = 0
KNH1 230459Z 04010KT 15/14 A3005 RMK A01 T01450136  RH  095%=      5-min Rain = 0

Page generated in 0.072 seconds.